GFSNW_925_spd_000.txt.gz
Wind_Speed
8 11 14 15 6 9 9 3 3 4 6 3 1 3 4 2 4 3 4 4 6 4 3 4 3 3 2 2 2 2 4 1 2 1 2 3 2 1 1 2 2 2 4 6
7 10 12 15 8 8 5 2 3 5 0 3 3 4 4 4 3 3 3 3 2 3 4 4 4 3 3 3 1 3 1 0 2 3 4 3 4 2 2 1 1 8 4 4
6 8 11 13 10 4 5 2 3 2 2 1 9 10 5 5 4 4 6 5 6 7 5 3 6 5 3 1 1 4 1 2 4 4 6 4 6 6 6 8 5 8 12 18
5 7 9 10 11 5 4 2 2 2 4 3 9 6 6 11 5 3 2 4 3 5 4 4 4 3 4 2 3 1 2 3 3 7 10 13 11 13 12 14 14 10 14 14
4 7 8 9 9 4 5 2 3 2 3 5 10 1 7 9 5 2 4 7 7 5 5 2 5 3 3 1 3 1 1 1 3 4 8 10 12 14 14 13 12 13 14 15
3 6 8 9 9 4 3 2 2 1 1 3 4 3 7 9 8 5 3 13 10 8 8 5 6 6 5 3 1 2 1 1 1 4 9 13 6 3 4 4 4 8 10 8
3 5 7 9 9 8 5 3 3 2 3 1 3 7 5 12 3 8 7 5 6 4 10 10 7 9 7 4 4 2 4 3 1 3 5 3 3 5 9 13 13 8 9 3
1 3 6 7 8 7 5 5 2 3 3 2 5 9 9 10 8 8 7 4 4 7 2 2 3 2 2 4 6 4 2 3 2 2 4 14 12 4 2 2 11 3 3 8
2 2 4 5 6 5 7 8 5 3 6 4 5 6 9 6 5 4 3 4 3 2 2 2 2 1 1 3 4 4 4 4 2 3 4 4 3 3 4 4 8 3 9 15
2 1 2 3 4 4 4 5 4 2 3 3 4 3 6 5 4 5 4 5 2 2 2 2 2 2 2 2 2 4 2 2 4 6 6 7 6 5 1 3 3 11 6 5
4 2 1 2 2 2 2 4 3 2 3 3 2 4 5 4 4 5 6 5 2 2 3 3 3 2 3 3 2 3 3 2 4 3 4 6 2 2 2 5 5 1 3 4
6 4 2 1 2 1 3 2 4 7 5 3 3 2 2 2 4 5 5 1 5 4 4 2 3 3 1 1 4 4 5 6 4 7 6 4 6 8 4 1 4 6 2 4
7 6 4 2 2 2 2 4 6 4 3 3 3 3 2 5 4 5 4 1 3 4 3 4 2 3 5 4 6 5 5 6 4 6 10 11 11 5 4 1 1 2 5 3
10 8 7 4 2 2 3 4 5 5 6 4 2 1 2 4 5 3 3 11 9 8 2 3 3 3 7 4 6 8 8 6 10 11 13 11 4 1 3 3 3 5 6 6
12 10 9 7 5 3 4 5 4 4 0 3 2 1 1 1 3 7 10 17 7 3 3 3 4 3 3 2 1 8 10 15 5 4 4 6 5 3 8 6 7 4 4 6
15 12 11 9 7 5 3 1 4 3 4 3 2 2 1 3 3 7 9 9 3 3 4 3 3 3 5 3 3 8 9 8 6 5 5 6 3 2 5 3 2 5 8 11
18 14 11 9 7 8 2 0 1 8 5 3 1 2 2 2 3 2 2 2 1 3 3 3 3 4 4 3 5 6 3 2 3 4 4 2 5 2 2 3 5 9 14 18
21 17 13 11 11 7 4 4 5 10 6 3 3 2 1 3 2 2 0 2 2 2 1 1 2 2 1 4 6 3 3 2 3 3 2 1 6 3 3 7 10 12 13 18
26 22 18 11 7 6 5 10 10 6 1 3 2 6 4 4 2 2 2 1 2 2 1 1 2 3 5 4 4 3 2 3 6 7 6 4 1 4 6 9 11 13 14 18
30 23 7 1 6 14 16 4 1 2 2 1 2 2 3 3 2 2 3 0 2 3 2 1 2 2 1 3 3 2 3 8 9 6 4 2 4 7 9 10 12 13 16 20
10 3 2 6 18 4 3 2 3 2 1 2 2 2 3 3 2 2 2 2 1 2 2 2 3 3 5 6 8 7 6 7 4 4 2 2 6 8 9 11 14 14 16 18
8 14 11 5 2 2 3 4 3 3 4 3 3 2 2 1 1 2 1 2 2 2 2 2 3 3 8 10 10 7 7 7 3 1 4 7 8 9 11 13 15 16 19 22
7 6 3 2 1 3 5 6 3 4 4 4 3 3 2 2 2 3 2 4 3 1 3 3 2 7 8 8 7 7 7 2 3 6 8 11 12 12 12 14 19 19 19 19
2 1 4 1 3 2 2 2 3 3 3 5 4 3 2 0 2 1 3 2 2 3 4 5 4 9 9 7 5 5 2 2 6 10 12 11 14 15 19 19 20 19 18 22
2 1 2 2 2 2 2 1 2 2 4 3 4 3 0 2 3 1 3 4 4 4 3 1 5 7 6 6 5 2 3 7 9 12 12 14 16 16 17 19 18 16 22 21
2 2 3 2 2 1 1 2 3 2 3 2 2 2 3 2 3 4 4 3 5 1 1 3 5 5 4 5 4 6 10 12 14 14 13 14 16 15 16 20 23 22 20 18
1 2 3 2 2 2 2 1 2 6 2 2 2 5 2 4 2 3 3 4 0 3 3 2 2 3 6 6 7 11 12 13 14 14 13 14 16 15 14 15 19 16 16 16

GFSNW_925_spd_003.txt.gz
Wind_Speed
5 8 11 5 12 15 10 5 5 2 6 7 4 5 6 2 8 3 3 3 4 5 4 3 3 4 5 3 4 4 6 2 2 5 3 3 4 4 3 2 2 2 3 6
4 6 10 8 10 14 7 3 5 2 3 4 3 5 6 3 7 3 4 3 1 3 5 3 6 5 5 4 4 7 6 1 3 5 6 4 4 2 1 2 1 8 5 4
4 5 8 9 4 9 3 3 3 4 5 3 9 9 9 7 3 4 4 6 6 8 5 3 7 7 3 2 5 4 3 1 3 5 8 5 6 7 7 8 6 9 10 14
3 5 7 8 5 6 3 2 2 1 7 6 8 9 10 11 6 3 6 4 4 7 4 6 4 6 6 3 3 1 3 2 5 9 11 9 10 12 12 13 13 11 13 15
2 4 6 7 6 5 2 2 3 2 2 5 9 5 10 13 6 8 7 7 7 5 6 2 6 4 2 2 4 1 2 1 4 4 6 7 12 14 16 12 8 13 12 14
1 3 5 6 6 2 2 2 1 3 2 8 8 7 10 10 10 2 4 11 8 10 9 10 9 8 5 4 1 2 2 1 3 4 10 11 6 3 3 5 8 7 10 10
0 2 4 6 6 4 2 2 2 3 4 7 8 8 9 12 6 9 10 7 8 6 9 10 9 10 6 4 3 2 4 1 2 3 6 2 5 7 13 9 9 10 8 9
2 1 3 4 5 4 3 3 2 3 3 5 6 10 13 10 11 13 11 6 6 9 1 2 2 2 3 2 5 4 0 3 2 2 5 14 12 4 5 7 12 12 6 9
3 1 2 3 5 4 4 3 3 2 6 5 10 10 13 11 8 7 5 5 4 2 2 2 2 2 1 5 6 5 4 2 3 3 3 4 3 2 3 6 9 7 6 10
3 1 1 2 3 4 4 2 3 1 3 3 7 6 10 5 9 6 7 7 3 2 2 1 2 3 2 3 3 4 2 2 5 6 5 8 8 3 5 4 3 6 9 5
3 2 1 1 2 2 4 1 3 2 3 5 2 3 7 4 7 5 9 5 2 2 2 3 3 1 3 3 2 4 6 6 4 3 4 6 3 4 2 8 11 4 3 7
3 2 1 1 1 1 2 0 4 8 2 4 3 3 2 3 3 4 9 0 6 6 3 3 2 2 0 1 3 4 4 6 4 8 6 7 7 9 11 6 6 3 5 5
5 3 2 1 1 1 2 1 2 3 3 3 4 4 3 3 3 2 4 2 3 5 3 4 3 3 5 5 6 7 7 11 6 7 7 14 7 12 3 4 2 5 8 10
7 5 4 3 1 0 2 1 2 2 5 4 3 2 4 1 2 2 0 11 6 9 4 3 3 3 8 5 7 7 8 8 10 14 16 14 13 4 0 5 6 6 9 8
9 7 6 5 3 2 3 2 1 1 3 3 3 3 1 1 3 5 6 13 7 3 3 2 3 3 3 2 2 8 10 14 10 11 7 4 7 12 13 11 6 5 6 8
12 9 7 6 5 4 2 3 2 2 1 3 3 2 4 3 5 8 9 10 5 4 4 3 4 6 5 5 4 7 6 9 8 7 1 2 5 8 10 6 4 4 7 11
15 10 7 6 6 2 3 1 1 5 1 2 2 3 2 2 6 3 4 2 3 4 3 4 4 5 4 4 7 8 8 7 3 2 1 1 5 6 2 3 4 5 11 15
17 12 10 9 8 4 5 0 3 6 3 2 3 2 2 6 3 3 2 2 2 4 2 2 3 2 1 4 10 12 9 6 5 2 3 11 1 2 3 4 7 10 12 17
20 16 14 9 7 5 3 6 4 2 1 2 3 6 4 6 2 2 2 2 2 1 2 2 3 4 6 9 10 8 7 6 5 6 4 4 2 2 4 6 9 12 13 16
23 18 7 2 6 11 14 3 2 2 2 1 4 3 4 5 3 3 3 1 2 3 2 2 3 3 9 4 3 4 5 6 5 7 6 3 3 5 7 9 12 14 15 16
8 3 1 3 19 4 1 3 3 2 2 3 3 5 5 2 3 4 0 2 2 3 3 3 3 3 10 10 8 6 6 7 6 3 4 1 3 6 8 10 12 13 14 16
8 9 6 6 2 2 4 3 2 4 5 3 3 2 2 3 1 3 2 3 2 3 6 2 3 3 8 10 11 9 9 9 7 3 1 4 7 9 10 11 14 15 15 21
8 6 3 2 1 2 5 8 3 4 4 3 3 3 2 2 2 2 3 5 3 1 3 3 3 9 8 10 10 9 10 8 2 2 5 9 11 11 10 13 16 18 17 18
2 2 3 2 2 3 2 3 2 2 3 5 4 3 2 1 2 2 3 2 2 4 3 4 3 7 9 8 6 8 8 6 1 6 10 10 11 13 15 17 20 20 19 21
2 1 3 3 2 3 3 3 2 2 3 2 4 3 2 2 2 1 3 3 3 3 1 3 4 7 8 8 7 6 2 3 5 10 12 13 15 15 15 15 17 14 20 24
2 2 2 1 1 1 2 3 2 3 2 2 2 2 2 2 1 3 3 3 4 2 2 2 6 6 5 5 5 5 4 7 12 14 15 14 14 16 16 17 19 22 19 21
2 2 2 2 2 3 2 0 2 2 1 1 1 2 2 2 2 2 1 2 2 4 4 3 5 3 2 5 7 6 8 11 13 14 14 14 14 15 15 15 17 14 15 19

GFSNW_925_spd_006.txt.gz
Wind_Speed
3 6 5 8 14 18 11 7 5 7 10 6 7 8 3 1 7 2 3 5 3 3 4 2 4 8 8 4 5 4 4 2 2 8 5 3 3 5 3 0 2 0 1 5
3 5 7 6 15 18 7 6 4 4 6 5 5 4 6 4 8 7 4 2 1 2 5 3 6 8 5 5 7 4 4 1 2 8 5 4 2 4 1 6 2 4 2 3
2 5 7 4 12 17 4 4 3 4 5 7 11 8 7 5 3 4 1 5 4 5 5 4 6 9 4 5 7 4 3 2 2 2 5 6 7 8 8 8 4 5 7 14
2 4 6 5 5 11 5 4 5 7 6 7 6 11 10 11 6 5 6 5 5 6 2 6 5 11 8 4 2 1 3 1 5 7 8 7 9 11 11 12 11 8 10 13
2 4 5 6 2 8 4 3 2 3 3 10 8 5 7 11 8 9 8 5 7 7 6 3 6 6 4 3 3 2 4 2 3 2 3 9 12 14 14 15 14 9 12 13
1 3 5 6 4 4 6 2 2 2 2 4 6 6 9 10 10 2 6 7 8 11 12 12 11 10 9 6 4 4 2 1 2 2 9 9 2 3 3 5 7 9 5 9
1 3 5 7 6 1 3 3 2 3 1 5 9 10 8 10 9 6 8 7 9 9 13 12 11 12 9 7 6 4 5 2 2 2 5 2 4 13 11 9 7 7 9 6
1 3 5 7 7 5 5 2 3 3 2 6 7 9 8 11 6 10 13 10 11 10 4 3 2 2 4 3 5 4 4 3 2 0 3 9 10 5 5 5 10 11 5 8
2 3 5 7 7 6 5 5 4 3 5 2 7 9 12 8 8 7 5 5 5 1 2 2 3 3 2 6 6 7 4 5 1 2 2 3 1 7 6 8 8 7 9 9
3 2 4 6 6 6 6 3 3 2 2 3 4 6 8 8 7 5 7 6 2 1 2 2 2 3 2 5 5 4 3 2 4 4 4 6 9 4 3 3 2 7 4 8
3 2 3 5 5 5 6 2 6 3 3 3 5 1 8 5 7 5 8 4 1 2 3 3 3 2 4 1 4 6 7 6 4 4 4 6 2 1 2 6 8 3 3 4
3 2 2 4 5 5 3 1 6 8 2 4 5 5 6 5 8 5 8 3 7 5 3 2 1 2 2 2 3 7 4 6 4 9 5 8 1 5 7 3 5 4 5 6
3 2 1 2 4 4 3 4 3 3 2 3 3 3 3 3 5 6 4 1 4 6 3 4 3 3 4 4 4 3 4 8 3 4 8 9 6 4 10 5 1 4 3 5
4 2 1 1 3 3 4 3 2 2 5 4 3 2 2 1 1 2 1 7 7 7 4 3 3 3 8 5 6 4 5 4 6 7 11 10 3 7 6 5 4 2 5 7
5 3 2 1 1 2 4 1 2 2 3 3 1 1 2 2 4 5 6 12 7 3 3 2 4 3 1 3 1 4 5 9 7 8 4 3 4 4 1 2 2 4 3 5
7 4 2 2 1 1 1 3 2 2 4 3 2 2 3 3 5 7 8 9 4 4 5 3 3 6 3 2 3 8 11 7 6 7 4 3 3 4 1 3 4 4 4 7
9 5 3 2 1 2 2 1 2 2 3 2 1 2 1 3 6 4 3 2 1 2 2 3 3 2 3 3 5 7 8 9 7 5 5 3 2 2 5 4 1 3 5 9
12 8 4 3 2 1 2 2 2 3 1 2 2 2 1 4 1 2 4 2 2 1 1 2 2 2 2 4 9 10 13 11 8 6 2 4 1 6 4 4 1 5 7 11
13 9 6 2 2 4 2 3 2 1 2 2 2 6 4 5 2 2 2 1 1 1 1 2 2 3 6 7 8 10 10 6 8 6 6 6 3 2 2 2 4 7 8 11
16 11 4 1 3 6 8 2 1 2 2 2 3 3 3 5 1 1 2 2 2 2 2 2 2 5 11 11 5 4 8 7 6 7 6 4 3 0 3 4 7 9 9 10
5 3 1 1 9 4 1 2 2 2 3 3 3 6 5 3 3 2 0 3 2 3 2 4 3 3 7 13 7 4 5 7 6 7 8 8 3 2 4 4 6 6 7 10
6 10 7 3 3 1 4 4 1 4 5 3 3 2 3 2 1 3 3 3 2 5 6 2 3 3 6 10 10 7 8 12 11 10 7 5 3 5 5 5 7 9 10 18
7 6 4 3 2 2 2 4 2 2 1 1 1 3 2 2 2 3 2 6 5 1 3 3 1 7 7 10 8 9 14 15 9 7 5 5 6 7 9 10 13 15 15 18
3 2 3 2 2 2 2 2 2 2 1 2 3 3 2 1 2 2 3 1 2 3 3 3 4 6 8 8 6 9 9 9 6 4 3 5 7 11 12 14 16 16 18 21
2 0 2 2 1 1 1 1 1 3 1 2 2 2 2 2 3 0 3 4 3 2 1 2 4 7 9 7 7 8 6 5 2 3 7 10 12 13 15 15 16 17 18 22
2 2 2 1 0 2 2 2 1 0 1 0 2 2 1 2 2 2 1 2 0 2 2 3 5 6 6 4 4 5 2 2 4 7 10 12 13 15 16 16 17 23 23 20
1 2 1 1 2 2 0 1 1 2 2 2 1 2 4 1 0 1 2 2 1 3 1 4 5 5 3 1 1 4 4 6 9 12 13 14 15 15 16 15 20 19 19 20

GFSNW_925_spd_009.txt.gz
Wind_Speed
1 4 3 8 14 17 16 2 1 8 9 3 3 3 3 1 3 3 4 5 6 4 5 6 6 4 5 8 6 3 3 4 3 3 2 2 1 4 5 4 3 1 4 4
2 4 4 7 16 21 7 3 3 4 2 3 3 6 2 3 6 3 1 5 6 5 4 5 9 5 5 8 5 1 3 2 3 4 4 5 2 4 5 6 3 3 4 5
2 4 5 3 15 22 1 1 2 3 1 2 5 4 3 3 6 3 5 5 3 5 4 5 4 4 2 5 3 2 3 3 5 5 2 1 2 4 2 6 3 4 6 6
2 3 4 3 9 12 5 1 4 7 4 4 5 5 8 6 2 1 3 1 4 5 3 5 5 5 4 2 1 2 3 3 4 4 5 4 3 4 5 5 6 6 8 7
3 4 4 5 4 10 6 2 3 2 4 5 3 4 6 9 8 6 4 4 5 8 5 1 5 8 5 4 5 3 4 1 2 2 6 8 4 7 7 7 7 6 3 4
3 4 5 6 5 10 4 4 2 4 4 3 3 3 2 1 7 3 4 6 12 14 7 9 7 8 6 6 4 2 3 4 3 2 4 5 4 4 3 1 1 1 2 1
3 4 6 7 5 4 2 4 3 4 3 2 4 6 4 7 6 5 7 9 8 4 6 6 9 11 11 9 7 5 4 3 3 2 3 2 4 4 1 5 5 7 9 11
4 5 6 7 6 5 4 3 3 3 1 2 3 4 4 9 14 9 12 8 7 8 6 5 4 5 6 5 6 4 5 4 3 3 1 6 6 2 3 4 4 7 7 7
5 5 7 8 8 7 7 7 4 4 5 4 5 3 9 6 4 5 4 6 6 6 3 4 4 4 6 4 3 8 7 6 4 2 4 6 6 4 6 3 3 3 6 5
6 5 7 8 8 7 6 6 5 3 3 4 5 2 5 6 5 5 4 1 4 6 3 2 3 3 2 5 7 3 3 3 5 3 2 7 8 4 5 4 6 3 5 4
6 6 6 7 8 7 7 7 8 3 3 3 7 7 4 4 5 5 5 4 4 3 3 3 3 2 4 2 6 6 7 6 4 3 2 7 6 4 7 5 4 6 5 5
6 5 6 7 7 6 6 5 8 8 5 3 5 7 9 7 2 5 4 7 4 5 4 1 3 1 0 2 3 4 2 7 6 9 7 7 6 7 5 6 5 4 5 4
5 5 5 6 7 7 9 6 7 5 3 4 4 3 7 5 11 8 5 2 5 4 4 3 3 3 3 4 5 1 3 6 3 4 6 6 7 4 5 6 8 7 6 3
5 4 4 5 7 8 9 6 6 5 6 4 4 2 3 3 5 5 4 8 10 8 4 3 3 3 5 4 4 4 5 2 1 3 3 5 6 7 7 7 5 6 7 5
5 4 4 4 5 7 9 8 7 5 4 4 2 1 3 2 3 5 7 17 6 3 3 3 4 2 2 1 2 3 4 5 3 5 4 4 4 6 6 5 6 6 5 5
6 5 4 4 4 4 4 2 2 4 4 4 1 1 1 1 1 3 6 4 3 3 4 3 3 4 4 3 3 5 7 7 6 4 4 7 8 6 7 4 6 11 8 5
7 5 4 4 4 5 5 3 1 3 4 3 2 2 4 4 1 5 4 5 2 3 3 1 3 2 4 3 4 6 7 7 6 10 10 5 6 4 8 11 11 7 6 12
9 6 5 5 6 5 2 4 3 3 5 5 3 2 4 2 2 2 4 2 3 3 1 1 2 3 2 3 6 8 10 8 9 8 6 5 10 7 9 9 10 7 6 10
10 8 5 4 3 2 2 2 3 1 2 3 2 5 4 2 2 2 3 2 2 2 0 1 1 2 5 7 7 7 7 7 11 8 8 6 9 9 8 7 7 7 5 6
12 7 3 2 0 2 4 1 3 4 3 2 2 3 2 3 1 1 2 2 2 2 3 1 2 4 4 5 2 3 6 11 13 10 7 7 8 9 7 7 8 7 2 3
5 3 1 2 5 2 3 1 2 1 2 2 3 5 4 2 3 3 1 2 1 2 4 5 3 3 4 7 5 6 6 9 10 15 15 12 11 7 7 5 3 1 4 6
7 11 7 4 4 3 2 3 1 2 3 3 1 1 2 1 1 3 1 3 2 5 3 2 3 3 4 8 8 8 14 19 17 18 13 16 16 12 7 2 5 7 7 10
6 6 4 2 3 2 3 5 1 1 2 2 2 2 2 1 3 2 3 5 5 2 3 3 3 1 5 10 10 13 19 21 18 15 16 13 8 4 3 6 8 9 10 13
3 2 3 2 2 2 1 1 0 1 1 1 1 2 1 1 2 2 4 1 2 3 3 4 0 7 8 8 7 11 8 12 10 9 7 2 3 6 7 9 11 11 12 15
2 2 3 2 1 0 0 0 0 2 1 2 2 2 1 1 2 1 3 1 2 1 1 2 2 4 5 6 6 7 7 7 5 3 1 4 6 8 10 11 11 12 16 17
3 2 3 1 1 1 1 1 1 1 1 1 1 1 2 2 1 1 0 3 1 2 1 2 3 4 4 4 5 6 7 7 3 4 6 6 8 10 13 14 14 18 21 21
2 2 1 1 2 3 1 1 1 2 1 1 1 3 1 0 1 1 2 2 2 3 2 2 4 4 3 4 4 1 3 5 7 8 9 10 11 11 13 15 21 20 21 22

GFSNW_925_spd_012.txt.gz
Wind_Speed
7 4 7 15 19 20 17 5 2 3 7 3 0 2 4 3 3 5 5 3 3 5 4 5 3 3 3 6 2 3 2 5 3 1 3 1 2 3 4 4 2 2 4 4
7 5 7 16 20 23 9 5 2 3 1 3 2 4 4 2 2 1 2 2 4 3 4 6 3 4 2 7 4 2 3 2 3 6 6 5 4 2 5 6 3 3 5 5
8 6 6 15 22 21 8 3 2 3 3 1 6 2 2 3 4 3 5 4 5 5 4 5 4 3 3 4 3 2 2 3 5 6 4 3 2 2 3 5 3 3 6 5
9 7 6 11 20 24 3 2 4 6 4 3 3 4 3 3 2 2 3 4 3 5 3 3 4 3 2 4 2 2 3 3 1 2 4 1 1 1 2 5 4 5 6 7
9 8 7 11 18 20 4 3 3 2 3 6 5 5 6 8 3 4 0 3 4 6 4 5 7 7 3 4 1 3 4 0 2 1 5 6 3 5 6 5 4 5 2 3
9 8 9 11 21 20 4 4 1 5 3 4 4 3 6 8 8 1 3 12 8 10 3 5 5 5 6 5 5 2 3 4 3 3 4 5 5 5 3 2 2 3 5 5
9 9 10 11 18 16 4 1 3 4 1 4 6 3 3 6 3 7 3 5 6 4 6 3 6 10 11 10 8 4 4 4 3 2 3 1 5 4 5 7 3 8 10 6
9 10 10 10 11 12 8 3 3 3 1 1 2 3 10 9 7 6 5 5 3 7 6 5 5 5 6 4 6 6 4 5 3 3 3 5 4 5 5 6 4 6 10 7
9 10 10 11 11 10 10 9 7 5 5 4 2 5 8 7 4 5 4 6 5 7 3 4 4 4 4 2 2 5 6 6 4 3 4 6 5 3 6 5 4 8 8 7
9 9 9 10 10 9 9 7 6 5 4 3 2 4 6 6 4 4 2 1 4 4 2 3 3 4 5 5 7 4 3 3 5 3 2 8 7 4 3 5 7 7 8 7
9 9 9 10 10 9 9 10 7 3 3 3 4 4 5 4 3 5 5 4 4 3 4 3 4 3 5 3 4 6 7 6 4 3 2 8 7 5 7 6 4 7 6 7
9 9 9 10 9 9 8 6 8 8 4 3 4 9 8 1 6 6 1 6 4 5 4 2 3 1 1 2 3 3 2 7 6 10 7 5 7 6 4 7 6 7 8 6
9 9 9 10 10 9 10 10 6 5 3 4 4 3 7 7 6 10 5 2 5 4 3 4 3 3 4 4 5 4 4 5 3 3 6 9 8 0 5 5 6 6 5 6
8 8 9 9 11 10 9 8 7 8 5 4 4 3 4 6 6 6 4 11 9 8 3 3 3 3 4 3 3 4 5 5 5 4 4 2 3 2 6 7 7 7 7 5
8 8 8 9 11 12 13 13 11 6 5 4 2 2 5 5 6 8 12 19 6 3 2 2 3 2 2 1 2 3 4 7 4 7 6 4 5 7 7 7 8 9 7 7
9 8 8 7 8 13 4 3 4 5 4 4 1 4 5 7 6 7 9 6 3 3 4 3 2 3 4 3 4 6 6 5 7 5 6 6 8 9 8 7 6 9 11 16
9 9 8 7 6 5 6 4 2 3 3 3 2 3 4 4 4 4 3 6 2 3 2 1 3 2 3 3 5 6 8 8 6 5 8 4 5 6 8 15 14 20 19 17
10 10 10 10 11 10 6 9 7 5 9 5 4 3 4 4 2 1 3 2 2 3 3 1 2 2 2 3 8 8 10 11 5 9 2 6 8 11 10 14 16 11 8 10
11 11 10 5 4 3 1 4 5 6 4 4 2 5 4 2 2 1 3 2 1 2 2 2 3 2 5 7 7 6 7 6 7 7 6 9 11 11 11 11 8 8 5 6
13 5 5 2 3 2 3 2 4 4 3 3 2 2 2 3 1 2 2 2 1 1 3 1 2 4 5 5 7 6 6 7 12 8 7 11 13 12 8 6 6 8 5 4
3 3 1 2 4 2 4 2 3 0 2 1 0 2 3 1 3 3 1 2 0 2 4 4 3 3 4 6 4 1 7 10 9 15 16 18 14 9 6 5 6 4 2 1
7 12 7 3 4 3 3 2 1 1 2 3 1 1 1 1 2 3 1 3 2 6 3 2 3 2 7 4 7 12 15 20 18 25 19 16 12 11 8 5 3 1 3 4
6 5 4 2 3 2 4 6 1 2 3 2 2 1 1 1 3 2 2 5 5 2 2 3 1 5 7 9 11 13 20 23 20 14 13 13 9 5 5 0 3 3 5 7
4 3 4 2 2 2 1 1 1 0 1 1 1 2 1 1 2 1 3 1 1 1 1 2 2 7 6 7 6 9 6 8 10 10 9 7 4 1 2 4 5 6 8 9
3 2 3 2 2 1 1 1 1 1 0 1 1 2 1 1 2 1 2 1 1 0 2 1 1 3 4 3 2 4 6 5 6 6 6 4 4 5 6 7 8 9 12 14
3 3 3 2 2 1 1 1 1 1 0 1 0 1 2 1 1 0 1 3 2 2 0 2 1 1 1 4 1 5 5 4 3 4 5 6 7 8 9 11 13 14 15 16
3 2 2 2 3 2 1 0 1 2 1 1 0 2 2 1 1 1 2 2 2 2 2 2 2 2 3 5 4 2 1 3 6 7 8 9 10 10 11 11 15 15 16 17

GFSNW_925_spd_015.txt.gz
Wind_Speed
19 15 14 19 24 25 19 6 3 1 6 4 1 3 4 4 2 6 4 4 2 5 4 4 2 4 1 5 1 2 1 5 3 1 5 3 1 3 4 4 3 1 3 5
17 14 15 21 27 29 11 4 2 3 1 4 2 4 4 0 1 3 2 2 2 2 5 6 2 3 0 3 3 3 1 2 3 6 6 5 1 3 5 5 3 4 5 5
16 13 15 24 30 29 12 4 2 4 3 1 7 3 3 1 3 3 3 3 5 5 5 6 4 2 1 1 3 2 4 3 5 6 4 3 3 3 3 4 3 3 5 3
15 13 16 25 31 27 8 2 5 5 4 2 4 5 2 3 2 1 3 3 3 4 4 3 3 2 2 3 2 3 4 3 2 3 4 2 0 4 6 6 5 5 5 7
14 13 16 24 31 22 3 4 4 3 2 7 6 4 6 6 2 4 1 6 2 2 6 6 8 6 2 3 4 3 4 1 1 1 5 6 3 5 6 5 4 7 6 7
13 12 15 25 32 21 4 3 2 5 2 4 6 5 6 8 6 6 2 9 5 5 2 4 5 3 5 5 5 3 3 4 3 3 4 4 6 8 8 5 4 6 6 8
13 11 15 25 32 27 5 4 4 4 2 4 6 6 4 6 5 7 1 5 6 3 6 4 6 11 11 10 8 3 5 4 2 2 3 2 6 3 5 5 3 3 2 6
12 10 14 23 32 25 6 6 4 3 2 2 3 7 6 7 6 5 3 4 0 9 5 5 5 5 6 5 6 6 3 5 3 4 3 5 4 5 6 7 7 6 7 6
12 11 13 19 26 23 12 7 6 4 6 3 5 5 4 5 4 4 3 5 9 6 3 4 4 4 4 2 1 5 5 6 4 3 4 6 6 3 5 4 5 9 8 8
12 12 13 15 21 22 14 6 5 4 4 1 3 4 6 6 5 4 3 4 2 3 3 3 3 3 3 4 6 4 2 3 5 2 4 8 7 4 3 5 7 7 10 9
11 12 12 14 17 18 11 7 4 3 3 2 1 1 5 4 3 5 5 4 3 3 4 3 4 3 5 2 4 6 7 6 4 3 1 8 7 3 8 6 1 9 8 9
11 12 12 12 14 14 12 6 10 12 5 3 4 9 8 2 7 6 1 5 4 5 4 1 3 2 2 2 3 2 3 7 5 10 6 4 6 5 5 6 6 7 8 6
12 12 11 11 10 9 8 13 8 7 4 4 4 3 7 10 3 6 5 2 5 4 3 4 3 3 4 4 5 3 4 4 3 2 5 8 8 6 4 6 6 5 6 7
12 11 12 12 11 11 11 9 7 8 4 4 4 5 4 9 5 3 3 12 9 7 3 3 3 3 4 3 3 4 4 5 4 5 7 5 7 8 6 6 6 7 8 7
11 11 12 12 12 13 15 17 13 7 5 4 2 3 7 11 7 11 16 20 6 3 3 2 3 2 3 0 2 3 5 7 4 7 8 5 6 6 7 9 10 11 9 5
11 11 10 11 12 12 4 4 8 9 5 4 2 4 5 11 12 15 11 6 3 3 4 3 2 2 3 4 4 7 6 5 7 8 6 7 4 5 6 8 8 6 8 12
12 11 10 8 7 4 7 4 2 5 4 3 2 3 4 5 5 4 3 6 2 3 2 1 3 2 4 3 5 10 9 9 7 6 6 1 4 5 6 8 11 20 18 17
13 13 14 16 15 12 8 10 8 6 10 4 3 3 4 7 2 2 3 2 2 4 2 1 2 1 2 3 10 6 8 8 7 6 7 4 5 8 9 18 19 14 10 11
14 13 12 5 5 4 2 6 7 12 7 3 2 4 4 3 2 1 3 2 2 2 1 2 3 2 5 6 4 5 6 5 5 1 2 5 7 11 13 14 12 13 7 6
11 5 5 3 4 4 3 3 4 5 3 3 2 1 2 2 1 2 2 2 2 1 3 2 2 3 5 4 6 7 8 8 4 5 5 8 11 12 12 12 9 7 7 8
3 3 2 2 3 2 4 3 3 1 3 3 1 1 2 2 2 2 1 1 0 2 4 3 2 2 4 11 8 9 9 9 10 12 16 15 15 12 11 5 9 5 4 4
7 11 6 2 4 3 4 2 1 2 2 2 1 0 1 0 2 3 1 2 1 5 1 1 3 2 5 9 10 12 15 20 18 23 19 18 16 12 9 5 3 3 4 3
6 5 4 3 3 3 4 5 1 2 2 2 2 1 1 2 3 2 2 3 4 1 2 2 2 4 6 7 8 11 16 21 19 16 11 9 7 5 3 3 1 1 3 4
3 3 3 2 1 2 1 1 2 1 1 1 1 2 2 1 2 1 3 1 1 2 2 1 1 3 5 7 6 5 6 6 8 8 8 6 4 3 3 5 5 6 8 7
3 3 3 2 2 2 1 1 2 1 0 1 1 2 1 1 2 1 2 1 2 1 0 1 1 3 4 5 4 2 3 4 4 5 6 5 3 2 4 3 6 8 9 10
3 3 3 2 2 2 1 1 1 1 1 1 1 2 2 1 1 1 2 2 0 1 1 1 2 3 3 3 2 2 1 2 1 2 1 2 3 4 6 9 9 8 9 11
3 2 2 2 3 2 1 1 0 0 1 1 1 3 3 1 1 0 2 1 1 1 1 1 3 4 5 7 5 2 3 4 5 7 9 9 8 9 10 10 12 12 13 14

GFSNW_925_spd_021.txt.gz
Wind_Speed
43 39 35 30 25 22 29 6 3 6 12 3 1 4 5 3 3 3 2 4 3 5 3 3 3 6 1 1 1 4 1 4 3 1 1 1 1 3 4 3 4 1 0 5
43 40 35 31 27 31 19 4 2 2 4 4 1 2 3 3 0 1 3 3 3 2 4 4 2 3 1 1 3 5 5 1 3 2 2 1 2 3 4 5 2 5 4 4
43 41 37 32 30 35 17 4 3 2 3 1 7 5 4 3 2 1 4 5 4 4 3 4 4 3 1 1 2 5 4 3 4 6 3 1 4 4 5 3 3 4 6 5
43 40 36 33 32 38 9 2 3 3 4 1 5 4 6 5 3 1 2 4 2 5 4 2 3 2 2 3 3 3 2 4 2 1 1 2 2 4 9 8 4 6 3 8
41 38 35 31 33 40 4 4 4 3 2 6 6 3 6 7 3 1 1 6 3 2 5 6 8 6 4 4 2 2 2 4 2 4 0 2 3 6 8 8 4 11 6 15
38 35 32 31 36 41 5 3 3 5 4 4 5 6 6 7 7 2 3 7 5 4 1 2 3 6 7 5 5 3 2 5 3 3 3 2 5 10 12 6 6 9 11 10
35 32 30 31 39 37 6 6 5 4 2 3 6 8 4 7 6 7 3 4 5 1 9 8 7 11 12 12 9 3 4 4 2 1 2 2 4 2 3 12 8 14 6 4
30 29 28 31 42 39 4 8 5 4 3 3 3 6 5 7 5 4 3 3 1 8 3 4 4 4 5 5 7 6 3 4 3 3 3 6 5 4 6 7 6 11 15 7
27 26 28 33 44 42 5 9 9 5 7 5 6 5 5 5 4 3 3 4 5 5 3 3 4 3 3 1 1 3 5 5 3 3 3 5 5 1 3 3 4 2 7 7
24 25 29 36 44 43 7 7 7 6 4 0 5 4 6 5 4 4 4 5 2 2 2 3 3 3 1 3 5 3 2 2 3 2 3 7 6 1 1 2 5 1 5 6
19 23 29 37 43 43 8 8 7 2 3 1 0 4 5 3 2 5 5 4 2 2 3 3 3 3 4 2 3 5 5 6 3 3 1 6 5 3 4 4 2 3 5 8
17 21 28 36 42 42 16 7 8 9 5 3 5 10 6 1 5 6 1 3 4 4 4 1 3 2 1 2 3 1 3 4 3 8 5 3 6 5 2 2 3 2 4 6
17 21 27 33 38 36 22 12 11 5 3 3 3 3 6 8 3 6 5 2 4 3 1 4 2 3 4 4 5 2 3 4 3 1 3 8 10 8 8 7 10 6 7 7
20 23 30 35 33 21 24 1 8 3 4 4 2 5 4 11 3 1 2 11 9 7 2 3 3 3 3 3 2 3 3 5 4 4 9 5 8 9 11 10 7 9 6 6
23 27 28 30 26 24 29 14 6 4 3 4 1 1 10 13 8 14 16 17 6 2 3 2 2 3 4 2 1 3 6 6 4 5 8 4 6 4 3 5 5 6 6 2
27 31 30 28 29 30 18 3 6 7 5 4 2 3 5 12 16 20 12 6 4 2 3 2 2 1 3 3 3 6 0 4 3 5 3 4 7 8 4 6 5 2 3 6
20 19 19 14 11 10 7 4 0 4 5 3 3 2 4 6 5 4 4 6 3 2 2 2 2 2 2 2 3 8 11 11 12 5 5 4 3 5 7 9 14 21 22 22
25 26 26 24 22 17 12 17 11 8 11 4 4 1 3 8 3 2 3 2 2 4 3 2 2 2 1 2 6 12 13 15 3 13 7 2 6 11 12 16 18 18 15 16
18 16 13 6 9 4 3 7 12 18 10 4 3 4 3 3 2 1 2 2 3 1 1 1 2 1 1 4 8 10 11 7 12 9 12 14 16 15 15 16 15 15 12 11
8 2 7 3 4 3 4 4 4 6 4 4 3 1 2 1 1 2 2 2 2 2 1 1 2 2 5 5 5 6 8 10 7 4 8 12 12 13 14 14 13 11 9 6
4 4 2 2 5 3 4 4 4 2 3 3 1 1 3 3 2 2 0 2 1 3 1 2 1 2 2 3 6 7 10 15 16 18 17 16 13 11 10 7 9 12 10 6
8 13 8 4 5 3 6 2 2 3 2 1 2 1 2 1 1 3 0 2 1 2 1 1 2 2 4 6 8 9 12 16 16 18 15 14 14 12 10 5 2 3 5 5
5 5 4 3 4 5 4 5 2 2 1 1 1 2 1 1 3 3 2 3 2 2 2 2 2 6 6 6 6 8 9 9 8 7 7 7 5 5 6 6 6 5 5 5
4 4 5 3 2 3 2 2 2 1 1 2 2 2 2 1 3 1 2 1 1 3 4 3 3 5 7 5 4 5 3 1 3 4 5 5 5 6 6 7 8 8 8 8
4 4 4 4 2 3 2 1 2 2 1 1 2 2 1 2 3 2 3 2 1 1 3 3 4 6 5 7 3 3 2 1 1 3 4 6 7 8 9 12 11 11 13 14
3 4 3 2 3 2 2 2 2 1 1 1 2 2 2 1 2 2 2 3 3 2 1 3 5 6 6 5 2 3 1 2 5 8 9 11 12 12 10 12 17 19 18 18
4 3 2 2 3 3 2 2 2 3 1 1 2 2 1 1 2 1 0 2 2 4 3 3 5 7 6 5 1 3 6 9 9 10 13 12 11 12 17 16 18 19 17 19

GFSNW_925_spd_027.txt.gz
Wind_Speed
37 34 34 32 38 37 34 20 11 23 33 11 10 16 22 12 12 9 9 6 9 12 11 12 12 13 8 9 7 9 4 4 6 12 5 5 9 8 10 6 6 3 4 5
37 33 34 32 43 46 31 12 9 18 28 14 14 19 22 14 13 12 12 11 8 9 10 10 11 10 6 3 7 4 6 7 8 6 7 8 8 10 8 5 2 9 3 3
38 38 34 33 45 48 33 11 11 6 10 17 21 24 22 18 12 10 14 11 9 10 8 6 9 8 4 4 3 3 1 12 10 9 5 2 7 12 11 11 7 9 11 11
35 36 34 29 49 50 33 11 13 14 17 20 21 23 18 22 14 10 13 11 15 13 9 9 7 10 6 5 5 5 4 9 13 14 5 6 8 8 12 17 16 12 12 14
33 34 36 31 54 52 21 9 13 14 17 24 20 21 23 24 19 15 16 13 16 13 9 10 9 12 9 7 9 7 5 6 3 6 7 7 10 12 14 14 16 17 18 17
36 37 34 26 52 51 13 14 6 13 18 24 18 18 23 23 16 3 8 16 11 11 4 6 8 8 4 4 7 10 5 4 3 4 3 5 6 17 18 17 16 12 15 16
33 40 35 33 56 58 28 18 5 8 16 18 20 22 22 21 17 11 5 8 10 6 13 13 12 11 8 6 4 3 5 7 1 0 1 1 2 2 4 6 12 14 13 14
37 33 37 36 57 62 30 15 5 4 4 17 24 22 21 16 9 11 13 5 4 16 9 4 4 2 2 2 2 3 4 4 2 2 6 9 12 5 1 2 5 8 7 9
33 35 43 50 54 60 26 15 9 8 8 13 22 19 19 13 11 7 4 7 9 4 3 2 5 5 6 5 6 2 3 1 4 3 3 4 4 4 1 1 5 7 8 9
39 37 44 47 50 52 40 7 11 8 7 14 14 15 14 13 12 7 7 8 5 3 3 2 3 4 2 5 5 4 2 1 6 5 3 6 3 3 2 5 3 8 9 9
37 41 40 45 48 47 42 9 6 6 4 7 2 9 13 12 12 8 11 7 2 3 3 3 3 1 4 2 2 6 6 7 3 3 3 5 6 6 2 5 6 9 9 9
38 41 44 44 46 43 43 7 3 10 4 6 6 7 7 0 7 8 12 4 11 7 5 1 2 2 1 1 3 3 4 5 2 6 2 4 5 5 5 4 7 8 9 10
37 39 41 40 40 42 29 4 6 9 4 5 5 5 6 5 3 3 5 3 5 6 2 4 2 3 4 4 5 3 4 2 3 1 2 3 4 5 3 4 7 10 11 12
36 38 38 38 38 44 15 5 1 7 5 3 4 4 3 4 2 4 1 10 6 9 5 3 3 3 4 4 2 4 3 7 5 6 9 6 5 4 7 10 10 10 10 10
33 32 31 33 34 42 11 3 4 8 2 3 6 9 6 2 5 6 7 13 9 4 3 2 2 3 4 2 0 3 4 2 3 3 6 5 8 12 10 8 10 9 9 9
29 31 33 34 38 46 11 3 4 11 7 4 4 4 4 8 11 11 9 5 3 3 3 2 3 2 2 4 4 5 4 4 3 4 8 8 6 11 11 10 11 12 12 13
30 32 35 37 41 33 4 1 5 12 9 3 4 4 4 3 6 3 4 4 3 1 3 2 3 3 3 2 4 5 3 4 1 6 8 5 10 6 9 12 15 18 19 19
31 32 34 36 35 12 3 8 13 12 2 1 4 3 4 4 3 3 3 2 2 5 3 2 3 3 1 3 6 4 5 3 7 6 6 6 8 12 12 14 14 14 13 13
40 38 38 31 10 3 4 9 9 7 3 0 2 5 4 2 3 2 2 2 3 1 2 2 3 2 3 4 4 4 6 4 3 7 11 12 12 12 11 12 11 11 8 8
38 25 8 4 2 12 7 9 4 1 2 4 3 1 4 0 2 2 2 2 2 2 1 3 1 2 4 3 3 3 4 5 10 10 8 10 11 11 10 10 8 9 9 8
4 4 3 4 5 3 3 2 1 2 2 3 2 3 5 3 2 3 2 2 2 3 3 3 3 3 4 4 4 4 6 10 12 15 12 13 12 9 7 7 8 7 8 8
8 17 9 4 1 2 5 3 2 2 2 2 2 3 3 2 1 3 2 3 2 2 5 3 3 3 9 8 8 9 13 15 15 16 13 11 9 8 8 7 8 8 7 7
5 5 5 3 3 4 3 5 1 3 1 1 2 3 2 2 3 3 2 3 2 4 1 2 2 7 8 10 11 11 13 12 11 10 9 9 9 10 9 8 8 7 8 9
5 5 5 4 3 4 3 3 3 2 1 1 4 3 2 1 2 0 3 1 1 3 4 3 4 8 9 9 10 11 10 5 7 9 9 9 9 10 11 12 10 11 10 9
5 5 4 5 2 3 2 1 2 3 1 1 3 3 2 2 3 2 3 3 3 3 1 2 6 10 9 10 10 10 8 4 5 9 9 9 7 8 9 9 9 9 9 11
3 5 3 2 2 3 3 3 2 4 2 2 2 2 2 2 2 3 2 2 1 3 3 4 9 10 9 9 8 8 7 7 8 9 10 10 9 8 6 7 9 9 8 10
3 3 3 3 4 4 2 2 2 4 2 2 2 2 4 2 2 2 2 2 3 4 5 4 7 9 10 9 10 8 9 9 9 9 8 7 7 6 6 5 8 9 8 10

GFSNW_925_spd_030.txt.gz
Wind_Speed
37 38 39 38 35 31 33 12 7 30 40 10 10 14 23 23 21 10 10 14 14 13 11 12 12 14 13 11 8 7 6 3 5 10 0 5 8 9 11 3 6 2 1 6
42 39 42 40 38 39 24 8 8 32 32 13 13 18 25 25 24 15 15 12 13 9 11 7 10 7 5 7 4 1 0 2 5 11 6 7 8 10 10 6 3 4 3 3
45 41 44 41 42 42 29 7 9 6 11 12 20 24 21 24 23 16 14 14 12 8 11 10 8 6 3 3 2 5 4 6 9 7 9 6 12 11 11 10 3 4 8 12
46 45 45 42 43 42 26 5 11 10 12 18 20 21 19 24 23 19 17 15 16 11 8 12 7 8 7 3 3 2 2 9 11 14 16 1 10 8 8 12 11 10 10 13
44 44 43 41 43 39 25 9 9 12 8 19 23 21 27 26 23 17 17 13 13 14 10 10 10 12 8 8 7 8 5 5 4 8 9 10 12 13 12 14 13 12 15 13
39 41 40 41 41 39 10 21 15 3 12 22 20 21 22 25 19 19 18 18 14 16 6 11 10 11 8 6 9 9 7 2 2 2 6 7 6 10 16 15 14 11 11 9
37 37 39 40 40 42 18 26 10 4 13 19 24 26 24 24 23 12 12 13 14 9 14 14 12 11 8 7 4 6 4 5 2 0 2 1 8 4 5 5 7 9 9 10
34 37 38 40 38 42 39 29 4 3 8 17 25 26 24 21 19 13 12 7 10 15 11 4 4 2 3 2 2 3 2 4 2 2 4 7 11 1 2 2 3 11 10 10
30 34 37 38 36 47 37 37 12 5 7 18 29 23 21 16 7 4 5 9 8 5 3 2 4 4 6 6 6 1 2 3 3 3 2 4 0 5 2 2 2 8 8 7
31 36 37 40 37 48 30 23 27 6 3 13 19 19 17 11 13 6 10 5 4 4 3 2 2 4 3 5 6 4 2 0 4 3 2 6 2 5 1 2 3 3 5 6
32 35 35 36 41 46 36 34 39 11 2 12 19 14 14 9 12 7 9 6 3 3 2 3 2 2 4 2 7 7 6 6 3 2 2 6 5 5 1 4 4 7 6 7
31 36 36 41 40 38 35 17 43 33 10 5 12 15 13 7 2 8 10 5 10 6 3 1 3 2 2 2 2 7 4 5 3 7 4 4 4 4 3 5 3 4 6 8
33 37 39 30 34 41 41 42 38 21 8 5 5 7 9 12 9 10 4 2 8 6 3 3 2 3 3 3 3 4 5 4 2 2 3 5 4 2 3 8 9 9 9 9
30 35 39 38 42 43 45 37 39 21 5 4 4 2 4 7 4 7 4 4 6 6 5 3 3 3 5 3 2 3 0 8 6 5 6 4 9 13 11 9 11 12 11 12
35 37 39 39 36 37 35 38 29 20 3 4 5 7 5 2 4 5 5 9 7 4 3 3 2 2 3 2 1 1 6 2 3 1 8 3 10 11 10 12 11 12 11 14
33 32 33 33 33 31 16 4 6 5 8 4 3 2 2 6 9 9 8 6 5 4 3 1 3 3 1 3 3 7 9 7 6 4 5 3 12 12 15 14 12 12 13 15
34 33 34 33 33 32 3 3 3 9 6 3 3 3 1 7 10 4 4 3 2 2 3 2 3 2 3 3 2 10 6 5 5 5 2 9 7 10 14 14 14 16 17 16
34 32 30 31 30 19 4 6 4 4 4 3 3 1 3 2 3 3 5 2 2 5 3 1 2 2 1 2 9 9 5 10 7 6 9 15 14 14 12 14 14 13 12 12
33 33 34 32 15 2 2 11 16 17 10 2 2 4 3 3 3 1 2 1 3 1 2 2 4 2 2 6 8 8 5 3 10 12 13 12 13 12 12 12 11 11 8 8
46 46 10 3 3 12 3 3 3 4 2 3 2 1 3 1 2 1 2 2 2 2 1 2 2 2 4 4 5 5 3 6 13 11 9 10 11 11 10 10 11 12 11 12
12 3 3 6 8 3 3 3 3 1 1 2 1 1 4 4 3 3 1 2 1 3 3 4 3 3 5 5 6 6 5 9 9 12 11 11 11 9 9 8 11 10 11 10
10 20 12 5 4 0 5 3 1 2 2 2 1 2 3 2 1 3 1 3 1 2 5 2 3 3 10 8 8 8 9 13 13 17 14 13 13 12 11 12 10 9 13 12
10 8 4 3 4 6 2 4 2 3 0 1 1 2 2 2 3 3 3 3 2 4 1 2 2 8 7 9 9 10 14 14 14 14 15 16 15 14 14 12 10 12 14 12
5 4 5 4 3 4 3 2 1 0 2 2 3 2 2 1 3 1 4 1 2 2 3 3 4 8 9 9 8 11 10 5 10 13 14 14 14 14 15 14 12 12 11 11
5 4 4 3 1 2 1 2 1 3 2 2 2 2 2 3 4 2 4 2 3 3 0 2 5 9 7 9 9 11 6 5 9 12 11 12 14 13 13 11 10 11 12 12
4 6 3 1 2 3 3 4 2 4 2 2 1 2 3 3 2 2 1 3 1 2 2 4 8 8 8 8 9 11 11 10 15 13 12 11 12 11 11 11 10 8 12 13
4 4 3 3 4 3 2 2 3 4 2 2 2 3 4 1 1 2 3 3 2 3 3 4 8 10 7 8 11 12 12 13 14 13 12 11 10 10 8 8 9 7 7 10

GFSNW_925_spd_033.txt.gz
Wind_Speed
41 38 35 37 36 31 32 6 6 24 37 6 5 15 14 12 18 14 13 4 4 8 8 8 9 10 2 7 9 9 9 5 4 12 16 6 4 4 6 5 4 2 4 5
41 39 38 38 39 40 29 4 5 25 33 12 13 7 17 22 20 21 7 3 3 2 6 4 8 5 5 6 5 6 2 2 2 6 5 4 3 5 4 3 3 4 5 5
42 40 43 38 41 44 29 4 7 5 11 10 18 17 19 23 16 21 19 7 6 4 4 2 6 3 2 5 4 1 5 2 6 6 6 1 3 4 5 4 4 3 5 5
38 41 40 42 42 47 31 4 8 8 12 18 14 18 13 20 17 17 11 8 8 6 4 3 5 5 3 3 1 2 4 4 1 5 6 4 4 5 5 5 6 7 8 6
42 44 41 45 43 47 28 4 7 8 3 16 16 19 22 24 19 17 17 10 11 7 6 7 7 7 5 5 1 5 1 2 2 2 6 7 4 5 8 6 5 1 5 6
43 44 44 46 42 49 11 14 8 7 9 18 17 22 23 22 18 12 15 9 8 7 6 7 4 7 7 9 8 6 6 4 3 3 4 6 6 6 7 5 4 4 4 4
46 45 41 48 45 55 8 20 6 3 9 14 19 21 22 24 24 13 10 8 7 4 11 7 8 12 10 10 5 3 6 5 3 3 3 1 8 1 5 6 6 8 9 7
43 44 44 48 47 50 31 9 3 4 2 12 17 24 23 17 16 18 7 2 9 10 7 4 4 5 5 2 3 4 4 5 2 4 3 5 6 3 2 4 4 5 8 8
39 46 47 45 48 43 36 35 19 3 2 8 18 24 19 13 10 1 2 7 2 5 3 4 4 4 6 4 2 8 6 5 5 2 4 6 6 3 4 3 1 4 8 7
34 36 41 42 45 43 29 18 24 5 4 5 9 19 24 13 5 5 3 4 5 4 3 3 3 2 7 6 8 3 3 3 5 2 2 7 5 5 1 6 6 5 6 5
29 33 36 37 37 37 35 26 24 5 3 6 2 9 13 8 6 7 9 4 5 2 3 4 3 3 5 4 8 7 6 6 3 3 2 6 6 3 6 5 3 6 5 5
28 32 34 34 37 39 36 13 21 19 5 5 20 7 6 8 10 7 6 10 9 6 4 3 4 2 2 3 2 3 2 6 6 7 6 7 3 7 5 8 7 5 7 8
29 33 33 34 37 39 36 22 11 13 3 6 3 1 7 19 24 27 5 2 5 2 4 4 3 4 4 3 4 3 2 5 3 5 2 2 7 12 11 12 11 12 12 10
28 30 30 33 31 36 33 29 27 9 2 2 4 6 4 8 17 16 5 8 5 6 4 4 3 4 4 4 4 4 5 5 5 2 8 13 10 9 11 13 13 16 16 15
29 30 27 32 32 31 31 21 26 25 3 3 3 9 13 9 10 18 12 10 6 3 3 3 3 3 4 1 3 1 2 5 4 4 2 10 6 10 13 16 13 13 14 14
26 30 29 29 28 32 18 3 21 38 19 5 2 2 6 5 7 11 8 4 4 3 4 2 2 2 4 3 3 1 4 9 4 5 9 15 15 14 14 15 13 13 14 15
25 26 29 30 32 31 9 6 10 15 22 4 2 4 4 6 6 4 4 5 3 3 2 2 3 2 3 3 4 6 6 10 8 6 14 10 5 9 13 15 19 22 21 19
30 32 36 38 30 12 11 22 13 11 1 4 4 2 4 8 3 3 4 2 3 5 2 2 3 3 2 3 5 7 10 10 13 14 14 15 15 15 13 18 17 13 11 10
38 35 33 28 9 4 17 18 1 16 7 4 3 4 3 3 3 3 4 3 3 2 2 2 4 0 2 2 8 7 6 7 14 14 14 13 14 13 13 11 9 10 9 10
35 31 6 4 5 2 7 1 4 5 4 4 2 2 2 2 2 1 2 2 2 2 3 2 3 2 3 5 6 6 8 14 15 15 9 11 11 9 10 12 12 13 12 14
8 2 3 9 5 9 4 3 4 1 3 2 1 1 3 3 3 2 1 2 0 3 3 4 1 2 3 3 6 5 5 8 8 12 10 10 12 13 12 11 15 16 16 13
7 17 12 8 5 3 6 3 2 5 3 2 2 3 3 2 1 3 0 2 2 2 2 3 3 2 7 8 6 6 10 13 13 17 13 16 17 20 18 15 16 17 16 13
9 7 5 1 3 6 4 2 2 3 3 3 3 3 2 3 3 2 2 3 1 2 3 4 1 6 6 7 8 11 15 17 19 19 22 22 20 22 20 17 19 20 19 16
4 4 5 4 4 4 3 2 2 1 1 1 3 2 2 0 3 1 4 1 2 2 2 3 3 8 7 7 7 10 11 12 14 16 18 18 19 18 21 20 19 18 15 15
5 5 5 4 1 3 2 1 2 2 2 2 2 2 2 2 3 2 3 2 3 1 2 2 5 8 7 9 10 10 12 10 11 16 15 17 18 17 17 17 17 17 15 13
4 6 4 2 3 3 3 3 2 3 2 1 2 2 3 3 2 2 2 4 2 2 2 2 6 6 9 10 10 9 14 17 15 14 16 18 19 17 17 15 15 14 14 12
5 4 3 2 3 3 2 3 3 2 2 2 2 3 2 1 3 3 3 3 2 2 2 3 6 8 9 11 12 14 17 18 17 17 17 19 19 20 17 12 9 11 12 11

GFSNW_925_spd_036.txt.gz
Wind_Speed
39 35 39 29 37 36 32 8 8 28 35 7 4 15 16 8 21 4 5 4 7 9 10 8 9 10 9 7 11 10 7 5 4 11 3 2 4 7 6 5 4 1 4 5
41 37 32 39 36 43 30 6 5 24 30 10 14 7 20 20 9 6 5 5 6 3 7 5 5 4 1 1 6 9 8 2 2 5 7 4 5 6 4 5 4 5 5 5
42 43 38 39 37 46 35 4 8 7 8 6 19 19 15 21 11 20 12 11 6 8 4 5 7 5 2 4 4 3 8 5 7 7 6 4 3 3 2 5 4 5 6 5
44 40 39 42 42 47 40 5 8 9 15 17 12 20 15 21 15 11 9 10 16 12 5 6 3 5 4 4 3 1 4 5 4 4 3 2 3 4 5 5 5 6 9 8
43 38 39 41 45 42 29 7 4 7 4 15 20 17 22 27 19 11 17 14 13 8 7 8 7 8 3 5 2 3 2 3 2 2 3 2 2 4 4 5 3 6 5 3
42 42 40 44 45 46 10 18 5 3 13 17 17 23 22 26 19 11 24 11 14 8 10 7 6 6 10 10 9 6 6 6 3 4 4 3 5 7 7 5 3 5 5 5
43 44 38 46 45 52 11 21 2 4 9 13 19 22 19 28 20 19 10 20 13 6 7 5 9 12 10 10 6 5 6 5 2 3 3 2 7 4 4 9 6 6 9 5
44 41 42 51 44 50 24 16 5 3 8 14 11 23 23 18 17 17 22 12 6 12 5 4 6 5 6 4 7 5 4 5 3 4 3 5 7 4 6 6 0 1 7 5
42 41 44 48 41 45 42 24 12 3 2 9 16 16 20 18 10 14 9 1 2 1 3 3 6 5 6 5 4 6 7 5 4 3 4 7 7 3 5 5 1 5 7 5
40 40 43 44 44 43 41 19 19 1 3 4 17 13 17 5 8 4 3 5 3 2 3 3 3 3 7 6 9 5 3 3 5 2 3 7 8 6 3 6 6 6 7 7
42 40 45 46 44 42 38 29 14 7 3 5 5 4 7 13 14 7 4 4 3 2 3 4 4 3 6 4 7 7 7 6 3 3 3 7 6 4 7 6 3 7 6 5
42 43 47 45 41 43 39 10 24 11 2 4 15 25 28 15 14 6 3 5 6 5 3 1 3 2 2 4 2 3 1 7 6 8 6 4 4 3 5 6 7 4 7 5
32 42 44 42 43 45 33 13 16 11 4 7 6 7 6 12 29 28 5 2 6 5 4 3 2 4 4 4 4 4 2 4 4 4 5 5 7 8 7 7 11 7 6 8
26 33 38 38 36 37 29 11 13 19 4 1 5 12 6 10 18 37 20 11 4 7 5 2 3 4 3 4 4 5 5 7 6 4 1 10 7 7 10 13 12 14 13 12
31 30 30 30 29 26 22 13 16 12 3 3 5 14 5 8 13 9 22 12 7 3 3 2 3 3 4 1 3 2 4 7 5 5 11 5 4 5 7 12 11 11 15 14
27 27 27 27 24 22 16 2 12 29 10 3 4 5 5 5 12 10 6 5 4 2 4 2 4 0 3 4 3 1 1 1 4 6 6 13 13 10 9 13 12 13 14 15
23 23 23 24 24 25 7 5 2 26 19 2 3 4 3 9 5 3 2 2 3 2 2 2 2 2 3 3 4 6 5 9 14 19 18 10 4 8 12 16 19 22 21 19
18 17 20 18 24 24 17 10 5 16 9 3 3 3 4 6 3 2 2 2 3 3 3 1 2 2 2 2 2 9 9 13 10 7 9 14 17 16 14 19 19 15 12 11
19 21 22 19 14 6 16 22 6 6 4 2 3 4 2 4 3 3 3 3 3 2 3 2 3 1 1 1 5 10 8 6 13 15 17 16 16 15 13 13 11 13 10 10
26 31 9 2 6 9 11 2 2 3 4 3 2 2 1 1 1 3 3 2 2 2 2 1 3 2 1 4 5 9 13 16 16 17 9 14 14 13 11 10 9 10 11 13
13 4 2 14 22 5 3 4 4 1 3 3 1 2 3 4 3 2 2 1 1 3 2 4 2 2 3 4 6 6 9 9 4 11 11 12 15 15 14 12 15 16 14 14
7 14 14 7 2 2 3 3 3 5 2 3 2 3 3 3 3 3 2 2 3 2 2 3 2 1 7 6 7 8 9 12 13 19 17 19 19 20 19 17 16 16 17 16
9 5 4 2 3 7 4 1 2 2 3 2 2 1 2 2 3 3 3 4 2 1 2 2 1 4 5 7 9 11 15 20 20 19 22 23 20 20 24 19 18 19 18 17
5 4 6 4 4 4 2 2 1 1 2 2 1 2 3 2 4 1 4 1 1 2 2 3 2 6 6 8 10 14 13 14 15 15 20 20 21 19 20 20 22 21 17 15
5 5 5 5 2 1 0 1 1 2 2 1 1 4 2 2 3 2 3 2 2 3 2 1 2 5 8 9 11 11 11 11 12 17 18 18 19 19 17 18 19 21 20 17
4 6 3 3 2 5 4 3 2 3 2 1 3 3 2 3 3 3 3 3 2 1 1 1 5 8 9 11 11 10 15 16 17 17 18 18 17 17 18 19 17 17 16 15
5 3 3 3 3 3 2 3 3 3 2 2 3 4 2 1 3 3 4 3 2 2 1 2 8 9 11 11 12 15 17 16 16 17 17 16 18 21 18 14 13 13 14 15

GFSNW_925_spd_039.txt.gz
Wind_Speed
47 49 45 42 41 32 33 11 7 29 34 9 4 12 6 6 16 4 4 3 6 5 9 8 9 10 9 9 10 10 8 6 5 10 3 4 3 5 5 4 4 1 3 6
49 53 49 44 41 42 31 7 5 27 31 13 16 7 15 11 9 7 6 5 2 4 5 6 7 8 4 6 8 10 8 2 2 7 4 2 4 5 4 4 3 6 5 6
49 50 48 48 43 46 27 4 8 6 11 12 20 20 13 21 12 16 1 3 3 2 4 5 8 7 4 5 5 8 8 4 7 8 8 4 3 4 4 6 3 4 6 6
55 53 48 48 46 45 29 5 8 7 14 21 17 19 15 22 15 12 8 5 8 3 4 4 3 3 3 2 6 2 6 5 4 3 3 4 5 5 7 6 6 6 8 7
55 53 52 46 49 45 20 7 5 4 2 17 24 17 20 24 22 8 10 17 6 14 10 8 6 6 4 6 3 3 1 3 3 3 3 4 4 6 6 6 3 6 4 6
54 55 52 49 48 44 11 18 3 5 11 20 19 27 23 23 19 19 19 13 12 6 13 9 12 6 4 10 10 6 5 6 4 4 2 3 6 7 8 6 5 6 6 8
56 52 51 50 49 51 22 24 1 3 9 14 22 20 21 23 25 20 16 23 10 6 4 3 5 8 10 9 6 4 6 5 3 3 3 2 7 3 6 5 2 5 4 6
55 52 51 52 46 47 37 11 3 2 4 15 13 21 23 14 19 19 20 10 17 8 2 2 3 5 5 4 7 4 3 6 3 5 4 4 5 4 6 6 2 3 8 7
50 50 50 50 40 44 39 33 12 3 1 8 10 20 19 17 17 11 14 5 5 5 3 3 6 5 6 4 3 3 5 6 5 3 5 7 7 4 3 5 2 5 5 7
46 45 45 44 41 40 36 22 34 6 2 3 9 11 14 12 10 9 5 14 3 2 3 3 4 3 6 7 10 6 3 3 5 2 3 7 7 5 5 6 7 8 7 7
41 42 43 40 38 45 30 26 20 6 1 4 5 5 7 6 13 12 4 6 1 2 4 4 4 3 6 4 5 7 7 7 4 3 3 6 4 5 8 6 3 6 5 5
40 40 39 37 36 38 32 9 29 14 1 3 12 21 28 12 6 11 5 4 7 6 4 2 2 2 2 4 3 2 2 7 6 8 6 3 2 5 1 4 8 5 7 5
39 38 34 32 31 33 32 23 19 6 3 5 4 7 15 16 23 23 7 2 1 3 3 4 2 3 4 4 5 4 3 4 4 4 2 1 1 2 4 3 5 6 5 10
38 37 34 35 34 37 31 26 17 16 1 3 6 9 7 8 12 22 21 8 7 4 2 3 3 3 3 3 4 5 5 7 6 2 1 3 4 3 7 11 11 13 12 8
39 34 33 34 36 35 34 18 21 20 4 2 4 11 16 9 9 21 25 8 6 4 2 2 3 3 3 3 2 2 5 7 6 6 12 5 5 7 8 12 10 10 15 12
33 37 41 39 35 36 20 2 11 16 17 2 3 5 5 12 4 12 8 6 4 3 4 3 0 3 3 4 3 3 2 1 3 5 12 6 13 8 6 12 10 11 13 13
30 34 41 41 38 25 6 3 4 29 10 2 4 5 3 4 1 1 3 3 3 2 2 2 2 3 3 3 3 3 4 7 12 17 17 9 3 6 10 14 16 19 19 17
30 29 29 32 32 28 11 3 19 34 10 1 3 4 5 6 2 2 2 3 2 4 2 1 2 2 2 1 2 1 9 13 10 6 7 12 17 14 14 18 19 15 13 12
30 31 29 20 4 3 5 10 24 8 3 4 3 3 3 3 3 2 1 2 2 1 1 1 3 2 3 1 5 5 9 4 12 14 17 17 18 16 14 14 12 15 10 9
28 22 4 3 10 16 12 7 4 1 2 0 3 2 1 2 2 2 3 2 2 3 3 2 3 3 3 4 1 7 9 16 17 18 11 14 14 14 14 12 10 10 9 13
10 3 3 11 31 9 3 1 3 2 0 2 2 1 3 1 3 3 2 4 3 5 3 3 3 3 4 2 4 7 9 10 3 10 12 10 16 16 15 13 15 16 15 14
15 10 16 6 4 3 3 1 1 3 4 1 1 1 2 1 2 1 3 3 2 2 1 3 1 1 5 6 7 7 8 11 13 17 16 17 18 19 18 17 16 16 17 20
2 5 5 4 4 3 3 4 1 2 2 2 2 2 1 2 3 3 3 4 2 0 2 2 1 2 6 7 9 10 11 15 16 16 21 23 22 21 23 18 17 19 18 19
5 4 5 2 2 3 2 2 2 2 1 2 2 2 3 2 4 2 4 2 2 3 2 3 0 3 6 8 9 13 12 13 15 15 19 20 21 19 18 20 21 21 17 17
3 3 5 4 2 2 1 1 1 3 2 2 2 3 2 3 4 3 2 3 3 2 1 2 1 6 10 10 9 12 12 11 12 16 17 19 20 19 18 17 19 21 21 20
4 6 3 2 3 5 4 4 3 4 3 2 2 3 3 4 2 3 4 3 4 3 2 2 4 7 8 10 10 10 13 15 16 17 19 19 18 18 17 17 19 20 20 19
5 4 4 3 2 4 4 4 4 4 1 2 2 5 5 2 4 3 4 3 4 4 2 2 4 8 9 11 10 14 16 16 17 17 16 17 19 22 19 15 14 15 16 16

GFSNW_925_spd_042.txt.gz
Wind_Speed
52 47 45 42 44 42 35 9 7 26 37 9 9 17 7 9 21 2 3 2 4 4 5 6 8 10 9 9 10 8 6 5 5 8 2 3 4 7 6 5 3 1 3 6
54 50 47 43 47 49 33 5 5 28 31 13 15 10 17 7 7 8 5 5 3 2 0 3 7 7 4 9 8 9 7 1 0 8 5 3 4 5 3 5 4 6 5 6
57 53 49 49 49 51 36 4 8 6 10 15 18 22 16 21 6 7 4 2 2 0 3 4 3 6 3 7 8 8 8 4 7 8 8 4 4 5 5 6 4 4 6 7
60 55 52 51 53 54 32 6 6 6 14 21 17 19 15 19 16 14 8 2 6 3 5 3 4 2 3 2 6 5 6 8 6 4 4 5 4 5 7 7 6 6 7 8
59 56 55 54 58 55 25 6 4 3 5 15 22 16 22 25 21 10 14 7 8 8 4 6 3 2 2 5 5 7 3 4 3 3 3 3 3 6 6 4 2 5 5 6
59 55 55 59 61 53 10 12 4 3 10 19 17 25 20 20 17 17 7 19 12 4 15 12 10 7 5 4 2 9 8 7 3 4 3 4 6 8 8 6 5 8 7 10
57 52 59 63 66 61 20 7 5 4 6 13 22 21 19 23 23 10 19 10 5 6 1 1 3 4 1 6 3 2 7 7 3 3 3 2 6 1 3 8 6 6 4 4
55 57 61 63 59 57 24 14 3 4 3 11 9 19 22 13 12 16 11 20 8 3 3 4 1 3 2 1 5 4 1 6 3 5 4 5 3 4 7 7 9 6 6 6
54 59 61 59 50 51 40 21 2 2 1 11 10 14 15 18 15 8 9 7 4 3 3 3 5 5 5 5 3 4 5 6 5 3 5 7 8 4 5 4 6 7 8 9
55 52 55 51 45 46 35 25 21 3 1 3 12 15 13 9 11 2 5 8 4 5 2 2 3 5 3 6 10 6 3 3 5 2 3 7 7 4 4 5 8 8 12 8
54 51 47 45 39 41 33 17 24 8 3 5 5 2 6 8 15 9 4 5 7 2 7 4 4 3 6 2 5 8 7 7 3 3 3 7 8 4 9 7 1 6 7 8
51 46 43 38 38 37 30 8 23 18 5 3 4 12 14 5 4 10 6 4 6 7 4 1 3 2 1 5 4 1 3 6 6 9 7 4 6 5 4 5 5 7 8 6
42 40 36 33 32 33 27 12 20 17 4 4 5 6 1 6 19 18 7 3 4 2 2 5 3 4 5 4 5 4 2 3 4 4 5 6 4 3 3 2 4 5 4 10
35 32 30 32 32 36 28 16 17 22 3 2 5 6 9 5 11 21 17 3 5 4 2 3 3 3 4 4 3 4 4 8 7 3 4 2 6 5 4 5 7 11 9 6
33 32 32 31 32 36 29 18 21 20 7 2 3 11 11 12 10 17 18 14 3 3 3 1 3 4 4 2 1 3 5 7 6 8 10 6 5 9 7 8 6 8 15 10
34 33 30 33 35 36 22 3 17 31 20 3 2 5 4 5 2 10 8 11 3 3 4 3 2 1 4 4 3 4 4 5 2 3 9 4 11 8 5 11 9 9 11 13
35 34 35 36 37 34 4 6 6 25 18 3 2 4 4 2 2 1 3 3 3 3 3 2 3 2 4 1 4 3 3 2 5 10 10 7 6 6 9 14 13 19 18 18
38 38 38 35 35 24 9 2 10 19 5 2 2 4 3 2 1 3 0 3 2 3 3 2 3 2 1 4 2 4 6 10 9 6 6 6 15 15 13 16 17 15 13 12
39 36 34 26 18 4 6 7 21 21 6 3 2 1 3 2 1 3 2 1 2 1 2 2 3 1 4 3 3 7 5 4 13 13 12 11 15 15 14 13 12 16 13 13
47 35 5 2 9 16 25 16 7 6 4 2 2 2 3 3 2 3 2 2 2 3 3 3 2 3 3 2 3 7 6 10 18 18 8 11 13 14 12 12 11 13 12 13
4 3 2 7 24 6 3 4 6 4 4 3 3 5 3 2 2 2 2 1 1 2 3 5 3 2 1 3 4 8 11 9 2 7 9 9 14 15 15 13 12 16 18 15
3 11 22 12 3 1 1 2 2 1 2 2 1 2 2 1 3 3 2 1 2 3 3 3 3 2 2 9 4 7 7 7 8 10 14 15 15 19 16 15 16 16 16 22
2 4 3 2 2 2 4 5 2 1 2 2 1 2 2 2 3 3 2 2 1 2 3 2 3 4 4 8 8 7 9 12 14 15 20 21 21 22 23 19 19 21 18 20
3 4 5 3 3 3 1 1 1 1 2 2 1 3 2 1 3 1 3 1 2 3 3 3 3 4 5 6 6 10 11 12 14 14 16 17 19 19 19 21 22 22 20 20
4 4 5 4 2 2 2 1 1 2 2 1 1 3 3 3 3 2 2 2 3 4 2 3 3 3 6 7 8 9 10 10 11 14 13 17 19 19 18 17 18 22 24 22
5 8 5 3 2 7 5 7 4 4 3 1 2 3 3 5 3 4 5 3 4 3 4 4 2 4 6 7 7 9 11 12 14 16 18 19 18 18 18 19 19 20 21 21
5 4 6 5 3 4 4 4 6 5 3 3 3 6 4 3 4 4 5 4 4 8 4 2 2 5 7 8 9 11 14 15 17 18 17 17 18 21 20 16 14 16 16 17

GFSNW_925_spd_048.txt.gz
Wind_Speed
49 48 48 49 48 43 37 14 9 21 38 11 5 13 30 17 21 16 8 5 6 5 9 15 15 22 16 17 21 20 18 9 9 13 3 4 7 10 12 7 6 4 7 10
51 49 49 51 54 51 37 8 5 28 32 14 12 29 26 28 19 24 12 11 7 4 4 7 16 12 11 14 19 17 14 10 10 10 6 5 9 11 12 7 3 12 6 4
53 49 50 53 59 56 37 6 7 6 12 20 27 29 24 30 23 23 14 11 7 8 6 4 4 9 4 12 18 3 17 13 16 13 14 12 11 13 15 15 8 11 11 11
51 49 51 55 62 62 39 7 8 11 14 20 29 28 28 28 30 26 19 15 17 13 5 3 3 2 5 6 4 7 11 16 17 18 16 15 16 14 15 16 17 13 13 16
55 56 55 59 63 65 22 6 7 14 13 27 32 28 26 32 29 24 24 20 21 13 13 4 5 7 7 1 3 7 6 10 11 13 13 14 16 17 18 19 17 14 16 18
57 57 57 60 68 67 8 18 18 13 15 27 20 23 29 32 27 27 25 20 11 21 20 9 3 5 8 8 4 9 5 8 8 13 9 8 6 16 16 16 14 15 16 16
57 57 56 61 69 70 24 27 13 9 14 17 23 32 31 29 28 26 16 15 17 6 6 6 7 11 9 10 9 9 5 9 5 5 4 7 8 3 17 18 15 15 16 16
56 56 56 58 66 70 30 26 12 8 11 19 24 27 28 23 22 24 22 10 13 3 3 5 6 5 7 8 7 12 14 8 4 4 9 9 4 6 8 12 16 14 18 18
55 53 53 53 67 70 27 30 24 5 12 16 22 22 17 19 20 19 20 11 7 7 5 5 7 8 8 7 4 2 8 9 8 4 7 7 9 11 10 4 15 10 12 14
46 49 52 55 69 67 31 17 22 10 8 8 15 17 17 26 16 16 18 10 10 10 6 4 5 6 6 12 6 5 5 4 12 11 7 6 3 10 11 9 14 5 7 9
45 49 50 66 63 53 35 21 20 16 5 1 1 13 16 19 16 16 16 10 5 7 8 7 5 4 6 8 12 6 8 9 5 8 7 11 12 11 11 13 3 7 8 10
45 44 60 62 62 43 32 9 14 9 3 3 5 6 8 7 26 15 17 13 16 8 7 6 5 3 1 8 10 7 8 6 3 9 6 3 20 15 17 6 7 7 9 10
38 52 63 60 60 38 24 16 16 9 3 2 1 3 4 10 18 18 12 10 10 12 7 5 4 5 6 5 10 12 7 5 5 2 10 12 12 16 6 10 9 6 8 14
52 55 54 50 53 36 29 15 13 13 3 3 1 7 12 9 14 18 17 11 7 6 7 5 3 3 5 7 10 10 10 9 9 12 13 6 11 15 15 10 7 7 9 15
48 47 42 44 40 30 25 16 9 12 2 1 2 5 7 14 21 19 20 9 12 4 5 3 4 4 3 2 2 10 8 8 8 8 14 7 15 7 14 14 13 10 13 16
46 46 45 43 40 36 25 2 6 5 6 2 3 2 12 19 26 19 20 13 9 4 5 4 4 1 5 4 7 15 13 10 12 8 2 4 3 4 5 12 11 10 13 15
46 48 43 35 29 25 6 4 10 20 12 3 3 3 5 14 17 10 8 14 8 9 7 4 5 3 4 3 8 8 10 13 10 3 4 3 5 2 6 7 11 7 11 14
45 44 39 35 24 11 5 5 19 25 5 2 3 2 4 13 4 3 3 4 6 8 7 2 7 4 3 6 11 13 6 4 5 5 1 2 6 8 9 8 13 13 11 12
36 35 30 19 4 3 2 5 30 6 2 3 2 3 1 1 2 2 2 2 3 1 5 5 6 6 6 3 7 7 8 7 6 5 4 4 5 8 13 13 13 12 14 14
39 26 4 2 5 11 25 11 4 2 2 1 2 1 2 1 1 3 3 1 2 2 5 6 4 6 5 8 7 8 4 5 8 7 6 8 9 9 12 11 11 13 12 16
8 2 2 7 18 10 3 3 3 4 4 4 4 9 3 2 3 2 2 3 2 3 2 7 3 2 6 12 9 6 4 1 4 6 1 5 11 12 13 12 12 12 16 17
4 8 10 7 4 2 2 3 3 4 3 3 4 3 4 3 3 2 2 2 2 0 1 2 3 3 9 9 8 8 7 4 4 4 5 7 9 11 13 14 13 17 22 24
3 3 2 2 1 2 4 7 3 3 2 2 2 3 4 2 2 2 2 2 1 0 3 3 4 10 8 9 6 8 9 9 9 10 12 16 16 17 19 15 21 25 23 23
1 2 4 3 1 3 2 3 3 2 2 3 1 2 1 0 2 0 2 2 1 3 3 4 7 13 10 7 6 6 8 9 11 10 10 13 15 16 22 23 24 25 22 20
4 4 4 4 3 4 5 4 2 2 3 1 1 2 1 3 3 4 2 4 5 6 4 5 10 13 6 6 7 8 9 9 10 10 11 14 18 20 22 22 24 25 23 22
4 7 5 8 4 8 7 7 5 4 3 1 1 2 4 6 3 5 7 4 6 5 6 9 10 8 8 9 9 10 10 11 13 17 19 21 20 21 23 24 23 23 22 19
5 5 9 8 4 5 7 8 6 4 2 2 3 6 7 3 5 5 5 4 4 7 7 8 11 10 11 11 12 12 16 18 20 21 22 22 22 22 24 20 20 21 20 20

GFSNW_925_spd_051.txt.gz
Wind_Speed
50 48 46 45 45 44 42 13 10 18 36 10 5 16 35 34 24 30 21 18 18 23 13 18 21 24 20 12 17 21 22 11 12 17 18 20 16 19 18 10 12 8 7 12
37 45 46 48 48 52 38 6 7 26 38 12 15 24 37 36 30 24 29 20 20 12 13 11 18 16 15 13 21 19 20 12 12 15 11 10 14 16 15 17 11 12 8 7
41 43 46 51 52 57 41 7 9 5 14 19 26 32 37 37 29 27 25 19 23 20 15 12 5 19 7 15 14 15 12 17 20 15 17 15 18 17 17 15 10 12 14 17
47 48 46 52 57 61 44 8 8 11 14 20 33 31 22 33 34 31 24 18 26 24 20 16 15 12 5 5 8 6 9 22 20 23 20 17 23 23 22 22 19 17 16 18
48 50 48 54 60 63 27 5 7 16 15 26 30 26 34 36 34 28 29 24 19 20 21 17 13 11 8 7 8 14 16 16 21 21 20 18 19 18 18 20 21 20 19 20
52 53 52 58 62 62 7 12 20 14 18 27 23 24 35 40 32 32 32 27 20 17 20 4 12 6 8 4 6 9 9 13 16 17 18 19 17 17 19 20 19 17 18 17
54 60 57 56 62 70 16 20 17 10 14 16 25 32 33 36 34 31 31 29 23 21 10 2 4 9 5 4 7 9 8 14 12 8 3 16 10 15 20 22 20 17 17 17
48 61 60 61 59 69 33 29 15 9 12 20 24 28 27 29 29 24 24 28 27 12 6 7 7 3 5 6 12 16 12 10 7 8 12 13 18 10 13 15 16 17 16 16
40 53 59 59 64 66 36 32 32 10 11 16 26 19 25 20 19 19 21 21 12 8 4 7 16 8 7 8 8 21 14 14 10 7 14 19 12 14 12 13 13 14 14 12
46 51 61 60 62 64 42 29 37 10 8 13 7 14 20 22 20 15 19 19 13 14 6 8 11 13 12 12 12 8 8 7 12 13 10 8 10 14 12 13 14 8 5 6
41 55 58 59 60 57 42 30 37 17 5 5 9 13 17 18 18 16 20 14 9 9 9 9 7 7 10 13 16 14 9 7 6 9 11 14 2 10 14 14 16 6 9 9
46 50 53 54 55 51 37 17 38 25 0 3 2 6 1 2 17 17 16 12 19 9 10 7 7 5 2 11 10 15 13 9 8 8 5 9 12 14 16 16 12 9 10 9
40 47 48 52 52 46 25 25 28 21 3 4 5 6 3 5 10 14 13 13 15 17 13 6 4 4 8 7 10 10 15 11 11 12 11 14 10 15 15 8 12 12 8 9
41 43 46 46 54 42 24 24 27 20 4 3 4 2 4 2 10 13 11 14 24 7 9 6 4 5 7 7 9 11 11 9 12 16 17 20 14 9 10 14 10 9 7 8
41 44 51 49 41 37 26 19 12 14 4 3 3 1 9 8 5 15 16 15 10 9 9 5 6 7 6 4 6 11 12 13 9 8 11 9 13 9 7 11 13 11 12 12
46 60 51 47 43 41 26 4 4 10 9 2 1 4 7 15 11 12 16 15 11 9 11 8 7 11 9 4 9 14 16 13 14 14 14 9 6 6 3 5 12 10 11 12
55 45 43 40 34 24 6 2 13 13 8 1 2 3 3 12 7 3 7 13 10 7 8 6 8 7 5 5 9 8 8 6 12 11 3 10 7 4 3 6 7 4 8 10
50 45 37 33 28 17 8 8 23 19 5 2 0 3 2 9 4 3 9 9 11 8 5 5 10 6 4 6 10 15 17 17 10 7 7 7 3 2 3 2 4 9 10 12
43 40 34 23 7 3 6 17 17 2 1 4 3 2 2 8 4 5 3 6 8 4 7 9 5 7 7 7 10 11 12 8 8 2 4 5 7 6 5 6 7 8 9 9
41 24 4 4 4 24 26 4 3 2 3 2 2 3 3 4 5 4 4 1 5 6 5 7 5 5 10 16 15 11 11 10 7 6 6 6 8 6 6 6 6 7 9 10
3 3 3 14 17 2 1 3 4 3 4 4 4 8 5 2 1 2 2 2 2 4 3 6 5 2 9 13 13 13 12 8 7 8 8 6 6 4 5 5 6 9 11 11
5 11 15 8 3 3 1 2 2 4 2 3 3 3 3 2 1 2 2 3 2 3 2 2 3 5 14 11 11 12 11 8 11 12 10 9 10 6 7 9 11 15 21 23
3 1 3 1 2 1 2 4 2 1 1 2 3 1 1 2 2 1 0 2 3 3 2 3 5 10 13 10 8 8 10 11 12 14 15 19 18 21 18 12 20 22 22 23
4 3 4 4 5 6 4 4 3 3 3 4 1 1 2 2 2 1 3 2 0 3 3 5 7 14 10 8 7 8 12 12 13 13 13 14 15 17 20 18 20 23 22 23
5 6 5 6 4 5 5 6 3 3 3 3 1 1 3 4 2 4 3 3 5 7 4 5 9 13 8 10 10 10 11 10 12 12 13 15 20 21 22 24 26 26 25 26
4 8 5 8 4 8 9 8 5 5 5 2 1 2 3 4 3 5 7 4 6 4 5 7 10 10 11 11 11 13 13 14 16 19 21 23 22 23 25 28 28 27 26 24
5 5 9 6 4 6 8 9 8 7 4 3 3 5 7 3 4 4 5 4 5 6 7 7 12 13 12 12 13 14 18 20 22 23 24 24 23 24 26 20 22 24 24 25

GFSNW_925_spd_054.txt.gz
Wind_Speed
43 44 44 43 41 39 38 12 8 19 38 10 6 18 41 19 27 30 29 26 27 24 23 12 19 23 20 17 27 27 21 6 13 16 16 16 18 16 16 9 9 5 3 3
36 43 43 48 45 45 34 5 5 20 33 12 16 24 34 32 27 32 28 28 26 22 19 12 15 21 18 8 11 20 19 16 11 16 15 16 18 16 17 16 10 14 4 7
36 37 36 46 47 49 36 6 7 6 12 18 26 26 35 33 30 29 30 26 24 21 17 20 12 14 16 9 9 6 18 15 16 12 14 11 18 18 19 18 8 5 8 13
37 37 36 39 54 52 42 7 6 9 15 19 30 27 18 29 26 32 30 28 29 22 13 14 18 26 9 2 8 3 5 20 21 18 18 17 20 21 20 21 14 13 19 19
40 41 40 41 45 49 34 6 5 14 12 26 29 26 30 33 22 27 35 30 30 24 18 14 16 20 8 14 9 11 10 14 18 20 19 21 19 18 20 21 20 18 18 17
44 45 46 46 47 50 20 10 16 10 18 23 22 24 33 34 28 24 30 31 24 23 18 8 2 7 15 19 13 10 12 12 14 17 18 18 19 18 17 14 16 14 16 14
47 48 50 52 52 53 30 13 12 4 8 17 22 31 34 34 29 28 26 27 27 24 6 13 2 8 14 24 3 4 5 10 10 6 5 24 9 14 15 15 16 15 16 14
49 50 51 54 56 55 45 17 13 8 3 18 24 30 27 25 23 22 25 25 27 20 12 7 4 3 4 12 8 4 3 4 5 6 12 12 15 12 11 12 16 18 19 18
47 51 53 55 58 57 51 26 34 10 11 14 28 16 25 19 18 20 25 24 17 14 12 8 9 5 6 6 4 7 7 6 7 3 10 12 4 12 13 11 12 12 14 12
47 51 52 55 59 59 53 21 42 13 3 10 12 11 15 18 18 16 16 21 14 11 14 14 11 10 16 7 6 5 3 7 11 10 7 6 6 13 14 16 7 8 11 12
36 47 49 52 58 61 54 30 39 21 5 6 3 7 7 12 15 14 11 7 6 1 9 13 8 6 10 7 12 10 10 8 5 7 5 13 7 8 18 9 10 6 9 4
33 38 38 47 60 55 43 19 37 26 3 2 2 6 2 13 15 9 10 18 9 8 7 6 6 4 5 9 6 7 7 7 5 6 4 11 6 7 6 6 7 7 6 7
35 35 34 47 54 54 27 21 32 17 4 4 4 6 9 8 19 16 11 10 13 5 8 4 5 5 6 4 5 6 2 12 10 10 11 12 13 13 7 7 8 10 8 7
32 41 41 48 53 52 31 26 26 16 3 0 1 3 5 10 14 7 1 10 12 11 15 6 4 3 7 5 4 8 6 7 14 12 12 10 13 13 8 5 6 7 4 5
43 45 44 44 45 35 30 26 27 17 3 3 1 7 12 10 3 7 3 9 9 2 3 3 6 6 4 3 5 6 10 11 8 5 5 1 5 4 2 13 14 12 5 4
43 45 48 47 40 40 30 4 15 18 8 3 5 1 5 14 10 7 11 8 4 3 6 6 6 5 3 2 4 9 11 11 13 11 8 9 2 4 4 5 10 11 8 7
43 43 42 35 37 22 5 4 14 22 12 2 1 1 2 11 10 2 5 8 1 3 3 4 7 7 7 3 6 7 5 6 4 4 8 3 2 4 6 7 11 7 6 3
46 44 40 35 31 20 9 9 27 19 1 3 1 1 2 7 3 3 4 5 3 4 2 4 6 6 1 3 6 10 13 14 10 10 2 4 7 6 6 6 6 7 6 4
46 41 32 24 10 3 4 11 10 3 4 3 2 2 2 2 2 3 5 4 1 3 5 3 5 4 1 8 11 13 15 11 12 10 7 7 5 5 5 4 4 5 7 8
31 18 6 3 5 21 18 4 3 3 3 1 2 1 2 1 2 4 4 3 1 3 4 2 2 3 6 13 12 11 13 16 12 9 9 10 9 6 0 2 3 5 5 10
2 3 3 21 11 4 2 3 2 3 2 3 3 6 3 3 3 2 1 4 2 3 3 4 4 4 8 11 11 11 12 12 12 10 12 13 10 6 7 10 13 15 15 14
6 15 13 4 1 1 2 2 2 5 2 2 3 3 4 4 4 2 3 3 4 6 2 2 3 5 12 10 10 12 12 12 12 13 12 13 15 14 15 14 13 16 21 20
6 3 3 1 1 1 3 4 2 2 4 4 3 3 2 2 1 2 1 4 2 3 3 3 5 11 10 9 8 12 12 12 12 14 15 18 18 22 20 14 21 25 25 23
3 3 5 4 4 5 5 5 4 2 2 4 3 2 2 1 2 3 3 2 1 4 3 4 6 11 9 8 8 10 12 13 14 14 14 15 16 17 23 23 23 25 23 25
6 6 6 6 4 6 6 6 3 3 4 3 1 1 2 3 3 4 3 4 6 7 4 3 8 10 10 11 12 12 12 12 13 14 14 16 22 22 24 26 27 28 28 28
4 7 5 9 5 8 7 7 5 6 6 3 1 1 3 6 4 5 9 4 6 4 4 6 8 11 11 11 12 12 13 15 17 21 23 24 24 24 26 29 28 27 26 25
5 4 7 7 4 7 7 7 6 6 4 3 3 6 7 3 4 4 5 4 5 6 6 7 10 12 12 12 13 15 18 19 21 23 24 24 24 25 25 20 22 24 24 24

GFSNW_925_spd_057.txt.gz
Wind_Speed
37 36 35 33 31 30 29 8 6 24 35 9 7 22 15 13 16 15 18 8 12 16 17 13 15 13 12 12 10 22 15 8 15 15 9 19 16 12 9 5 5 4 5 5
40 39 37 34 33 36 25 5 4 27 30 11 18 20 27 24 19 12 11 14 10 16 18 11 2 10 10 18 12 17 9 14 6 7 8 9 19 8 9 9 5 8 5 5
41 38 39 40 36 40 35 5 5 4 13 15 23 23 25 23 8 25 24 18 16 21 17 15 5 4 10 21 19 20 19 9 18 17 4 6 6 12 13 10 4 6 6 4
41 41 34 33 35 44 40 5 5 6 11 21 21 17 4 21 17 17 14 14 24 21 11 15 12 4 10 18 21 13 10 15 14 11 11 14 16 12 16 14 14 9 6 7
35 32 34 39 39 40 33 6 5 7 7 17 22 19 25 26 17 17 18 20 23 11 19 19 12 5 3 1 14 10 10 3 9 16 18 15 10 15 15 17 16 12 11 13
36 36 38 39 39 37 12 8 9 7 11 15 16 27 33 27 18 20 19 19 19 21 26 10 2 7 6 4 3 10 10 3 5 17 19 18 16 16 21 15 12 11 13 9
36 38 41 42 43 44 33 9 6 6 5 16 23 26 27 25 19 22 17 14 15 29 5 6 3 5 0 3 3 5 10 14 3 4 4 14 7 11 10 16 14 6 4 4
41 42 43 45 47 46 37 12 5 7 10 16 20 24 20 24 16 23 18 23 21 6 11 13 3 4 4 4 1 8 13 14 3 7 9 5 12 8 4 7 8 7 6 6
45 47 48 48 49 46 44 29 21 1 5 11 22 17 20 14 15 17 22 23 9 5 8 5 13 7 3 4 3 6 11 16 5 3 3 17 2 8 7 3 9 4 3 8
40 44 50 52 53 50 43 23 29 8 1 7 18 13 15 15 14 12 13 13 8 7 5 5 8 8 4 5 6 3 2 8 4 3 1 6 5 8 2 7 4 5 6 5
36 41 45 50 54 53 48 34 34 20 2 7 9 6 2 11 13 11 7 6 7 4 7 5 4 5 9 5 6 6 6 4 1 0 3 5 6 7 6 4 8 6 8 6
33 39 41 45 51 53 51 14 35 31 7 3 4 5 14 14 3 4 6 6 5 5 3 3 4 3 4 8 9 6 5 7 6 7 5 4 8 4 2 8 12 8 6 1
34 37 41 45 48 50 51 21 32 24 7 2 3 4 12 10 2 9 2 2 4 4 4 1 1 2 4 5 11 7 5 7 4 4 6 9 15 3 2 4 9 13 11 5
30 26 31 49 50 48 47 23 33 28 3 2 1 5 12 18 12 8 8 11 14 5 4 3 2 2 6 10 5 6 5 7 7 2 3 11 15 5 4 6 11 18 15 9
23 25 31 41 48 51 40 25 40 22 4 4 3 5 10 14 11 10 13 11 5 3 2 0 3 4 9 4 1 4 4 7 4 5 10 8 10 5 7 6 7 10 21 11
28 24 36 42 46 46 37 4 15 17 9 3 2 2 6 18 13 13 11 6 2 3 3 2 2 5 5 3 4 5 5 2 2 4 3 5 4 8 6 3 2 2 7 11
39 40 41 43 38 23 3 4 14 15 12 3 2 1 1 7 4 2 1 2 2 2 3 3 2 3 2 3 1 14 17 15 13 15 7 6 8 4 4 4 5 6 6 7
47 40 38 39 28 20 9 25 32 18 5 2 3 2 1 3 2 1 2 3 3 3 1 2 3 2 3 1 10 15 15 16 15 16 8 4 4 7 7 5 6 8 8 7
37 33 29 15 11 4 6 19 15 6 4 1 2 3 3 6 2 1 1 4 2 2 3 2 1 1 4 8 12 13 15 13 14 13 10 9 9 7 6 7 7 8 10 12
25 17 5 4 5 23 19 9 3 2 2 1 1 2 2 3 2 1 1 1 3 4 5 3 2 3 2 10 10 9 11 13 13 9 10 10 10 9 13 13 11 11 11 13
4 3 3 8 4 4 3 2 2 2 0 1 2 3 3 0 2 3 2 2 1 2 3 4 3 2 8 10 10 11 11 10 10 9 9 10 10 9 10 13 14 13 13 13
9 15 8 3 3 3 4 3 1 1 1 2 1 2 1 2 2 2 2 3 2 3 2 4 3 3 9 9 10 11 10 10 11 12 13 13 15 13 13 13 13 16 20 21
5 5 3 1 3 5 4 2 2 2 4 4 4 2 2 0 2 2 2 3 2 2 4 3 3 7 7 8 8 11 11 11 12 13 17 21 20 23 21 14 20 23 24 23
4 3 6 4 4 4 4 4 3 2 2 5 3 2 1 1 1 2 3 3 3 5 4 3 4 8 9 9 10 9 11 11 13 13 16 16 19 20 25 24 23 25 23 24
5 5 5 5 4 3 3 3 3 2 4 4 2 1 2 4 3 4 4 4 5 5 3 2 5 8 10 10 9 9 11 11 13 15 14 18 21 22 24 26 27 28 27 27
4 7 4 6 2 5 4 4 3 3 4 3 2 3 3 5 3 5 7 4 5 3 3 4 6 11 10 9 11 11 14 15 16 19 21 23 24 23 24 28 28 27 27 26
4 3 4 4 2 4 4 2 4 3 2 3 3 5 5 3 4 4 5 4 4 5 5 6 10 11 10 11 12 15 16 17 19 21 23 22 22 24 24 19 22 25 25 26

GFSNW_925_spd_060.txt.gz
Wind_Speed
34 33 29 27 26 24 24 7 5 20 30 7 6 19 12 4 10 7 12 6 6 7 4 4 4 4 4 7 5 4 12 6 12 24 14 5 20 11 10 5 5 3 5 6
36 35 33 31 29 28 18 3 3 22 29 11 17 14 14 18 11 2 4 7 11 5 3 4 6 3 7 6 4 7 8 6 8 6 14 16 11 8 12 6 4 11 6 5
38 36 35 35 34 32 31 4 5 4 11 9 13 20 19 18 12 23 20 11 7 6 8 6 7 3 6 7 2 4 1 7 15 18 6 5 5 8 15 12 5 5 8 6
39 38 37 36 37 37 33 4 6 6 10 17 16 12 9 23 19 14 6 8 21 6 5 2 11 6 3 3 6 5 5 7 12 18 16 17 6 9 10 14 9 10 8 12
39 38 38 38 40 42 26 5 5 4 1 15 22 21 25 23 15 12 14 17 10 15 18 8 13 10 10 5 2 3 7 5 14 19 19 17 19 17 19 17 6 6 7 8
40 40 40 41 44 44 15 18 7 4 10 12 16 32 22 16 16 13 16 13 13 16 7 10 9 5 5 0 2 2 4 6 9 6 6 13 8 25 22 8 6 5 7 8
38 38 40 41 40 44 19 6 5 6 8 17 25 14 22 20 18 19 12 12 11 7 4 3 2 2 4 4 5 5 6 4 1 7 8 13 18 5 10 11 13 13 6 7
29 30 31 36 39 46 30 14 6 4 10 16 18 23 15 16 18 21 17 16 13 10 4 2 4 3 5 5 6 9 5 6 3 3 5 8 12 8 15 15 20 14 10 9
33 34 35 36 38 41 40 25 22 1 3 15 18 14 15 12 15 14 19 15 8 3 1 3 7 5 3 3 5 6 7 7 5 3 6 8 2 11 5 3 6 5 7 10
35 37 38 40 42 44 37 15 32 9 2 3 10 12 16 10 10 5 4 6 9 7 3 2 5 8 6 8 7 5 1 1 3 3 4 8 5 8 5 8 5 4 4 4
37 40 42 44 45 43 41 29 35 20 3 5 5 7 6 9 12 9 3 3 2 4 7 4 5 4 7 2 5 8 7 6 4 2 2 8 4 7 3 2 5 7 8 9
31 34 37 41 46 50 44 15 32 28 3 2 3 23 14 11 8 8 6 5 5 5 4 4 3 2 0 6 7 3 2 6 6 7 8 15 5 2 1 3 4 4 4 9
31 32 33 36 42 48 50 27 31 20 4 1 2 8 8 11 12 7 5 2 4 4 3 4 4 4 5 6 5 5 5 4 4 3 8 14 7 4 10 11 7 5 2 4
29 34 35 37 40 46 49 27 30 25 4 2 4 18 13 10 7 9 6 2 3 4 2 3 3 3 3 4 3 5 8 7 8 5 5 5 4 5 6 9 6 4 2 2
29 36 34 36 39 40 37 25 35 31 8 6 3 6 22 21 23 23 23 7 3 2 0 1 3 3 2 0 2 2 5 4 3 7 7 5 6 7 6 7 4 3 3 1
19 30 39 38 40 41 28 5 27 33 7 3 3 3 5 9 14 8 5 4 3 3 3 2 3 4 4 4 4 5 9 11 10 5 15 7 4 6 8 3 4 5 6 6
21 25 37 45 44 30 3 5 17 34 20 0 1 2 2 12 5 1 2 3 2 2 1 5 4 2 2 1 3 9 9 13 11 14 9 6 9 4 6 5 6 6 7 8
40 41 45 49 36 15 6 14 40 39 7 2 3 1 3 3 3 2 2 3 3 4 3 2 3 2 2 2 10 12 12 14 8 16 12 6 6 5 7 6 6 11 12 11
40 44 42 24 5 3 7 26 26 13 3 3 3 4 3 1 2 2 1 2 1 1 2 1 3 3 4 8 10 10 11 10 12 11 7 11 12 10 12 10 12 11 10 11
14 11 5 4 4 7 14 9 4 4 4 3 2 0 3 3 1 1 1 2 2 3 4 3 4 3 2 10 9 9 11 11 11 7 9 9 11 11 12 12 9 11 11 11
6 3 3 3 6 4 3 3 2 1 3 2 1 2 3 1 3 2 2 2 2 3 2 3 3 2 5 7 9 10 11 10 9 9 10 10 10 8 7 10 12 12 13 13
11 14 8 5 3 3 5 2 2 2 2 2 2 2 2 2 1 2 1 3 1 2 2 4 3 4 7 8 10 12 11 12 13 14 13 14 15 13 11 12 12 15 20 20
5 5 4 3 4 8 5 2 3 3 3 4 3 2 1 2 1 2 2 3 2 2 4 3 2 5 7 8 7 11 12 13 14 15 19 21 20 22 18 13 19 22 23 22
4 4 6 4 5 4 3 2 2 2 2 4 2 1 1 1 1 1 3 4 4 4 3 3 4 7 6 8 9 10 12 12 13 14 17 17 19 19 23 23 22 24 23 23
5 5 5 5 2 2 2 3 2 3 2 2 2 0 3 4 3 4 4 4 5 4 2 2 3 7 9 10 10 10 10 10 11 15 14 18 20 21 23 24 25 26 25 25
4 6 4 4 3 4 4 3 3 3 4 1 1 3 3 5 3 4 6 4 4 2 2 3 6 10 10 9 10 10 13 15 16 19 21 22 22 22 23 26 27 26 26 26
5 3 5 5 2 3 3 3 4 3 2 2 3 5 3 2 3 4 4 3 3 5 6 6 10 11 10 11 13 18 20 20 20 21 22 22 21 22 23 20 23 26 26 27

GFSNW_925_spd_063.txt.gz
Wind_Speed
32 32 29 28 25 23 23 6 5 24 33 6 4 13 11 11 3 3 9 3 5 5 3 4 3 3 2 4 3 3 2 2 9 23 14 3 5 7 10 7 4 4 3 12
34 33 32 32 29 27 7 3 3 25 28 11 12 9 12 10 2 1 1 5 3 2 3 4 4 4 6 7 5 3 5 4 4 8 6 3 9 6 5 2 2 12 7 7
38 37 36 35 31 30 27 4 5 4 7 2 16 13 15 13 12 16 6 3 4 3 3 3 4 5 6 10 1 2 2 1 4 4 8 5 4 9 15 11 8 7 15 8
40 37 35 36 34 34 26 4 4 5 7 15 8 17 9 20 12 12 12 9 16 8 4 3 6 5 4 5 1 3 3 2 7 13 15 16 19 10 12 18 12 11 8 12
40 38 38 37 36 35 25 4 4 4 1 15 20 18 19 19 17 8 12 8 6 6 14 11 5 7 3 4 4 4 4 3 2 4 12 20 18 18 23 11 5 7 9 8
41 40 40 39 38 37 12 15 7 3 9 13 16 24 21 16 15 12 17 12 13 10 12 10 15 8 7 7 6 3 4 3 0 6 10 18 7 14 15 17 19 6 10 8
42 41 40 40 40 41 26 12 6 5 6 15 18 16 21 23 18 19 11 17 8 6 3 5 5 6 11 10 9 5 6 5 4 3 2 5 7 25 17 18 19 13 6 6
37 38 39 40 41 42 36 17 10 7 12 9 16 16 17 19 18 17 18 9 8 5 3 2 5 3 2 7 7 8 6 4 3 2 2 8 12 6 13 10 17 13 15 11
25 27 35 44 42 42 42 28 18 3 6 14 10 14 16 11 14 11 13 6 3 2 0 1 4 3 3 1 4 4 5 3 3 3 3 6 2 5 16 15 16 6 11 20
30 31 30 30 30 33 44 14 29 5 2 2 9 7 11 10 11 5 8 11 8 7 2 2 5 5 3 4 8 4 3 1 5 4 4 7 7 6 6 2 5 5 8 6
31 31 32 34 34 32 29 10 35 17 3 2 3 4 3 12 13 8 6 5 3 3 6 4 4 3 5 6 5 7 7 7 4 2 3 8 4 6 7 13 13 5 6 5
34 35 33 33 33 36 35 6 28 25 2 1 6 17 18 11 7 12 9 7 6 5 4 2 3 3 0 4 4 4 6 7 5 9 6 3 6 6 11 11 14 16 6 6
30 32 34 37 37 37 38 17 26 17 3 2 1 5 9 14 20 20 4 3 4 4 3 4 3 4 4 4 5 5 5 3 4 2 5 14 14 7 11 16 13 11 10 10
28 29 31 33 37 41 42 25 31 20 2 2 4 13 9 17 9 17 11 4 2 4 2 2 3 3 2 4 5 7 6 5 9 14 9 10 8 10 15 11 11 12 9 9
29 31 31 32 34 37 36 31 28 33 6 4 3 4 14 22 17 14 15 6 2 1 2 2 3 2 3 3 3 2 3 1 2 4 3 3 11 9 7 5 2 6 4 6
28 30 34 34 32 35 23 4 23 35 18 1 1 2 6 21 17 14 6 4 3 3 2 3 3 4 2 3 7 3 2 4 1 3 14 14 18 9 9 5 7 9 9 10
28 35 32 36 35 37 6 5 19 40 23 1 2 2 1 12 6 2 2 3 3 3 3 3 2 2 5 2 2 4 7 9 10 7 11 3 7 6 11 8 10 9 9 10
38 37 34 36 34 21 4 3 45 36 6 1 2 2 3 4 3 3 2 2 2 2 3 2 2 1 1 2 6 9 9 10 4 13 8 7 5 10 14 12 11 14 13 12
48 48 39 21 6 3 3 31 36 19 5 1 1 3 3 3 2 3 1 3 1 2 3 3 4 1 4 5 7 9 10 9 11 13 5 7 10 10 11 12 12 12 11 11
37 20 4 2 5 32 29 7 2 1 3 2 1 1 3 2 1 0 3 2 2 2 3 4 3 3 5 7 7 7 9 9 10 9 5 9 9 8 11 12 10 10 9 10
1 2 3 17 16 4 2 4 4 3 2 2 1 2 3 1 3 2 2 2 3 4 3 3 2 2 2 6 8 9 9 8 9 8 8 10 10 8 8 11 11 11 14 12
10 12 8 5 3 3 5 2 2 3 2 2 2 2 2 1 1 2 2 2 2 2 3 3 3 2 7 8 9 10 9 9 10 11 11 12 12 13 12 12 13 16 19 20
6 6 5 4 5 10 5 3 3 3 3 4 3 2 1 2 2 1 1 2 2 3 4 3 3 5 6 7 7 10 10 12 11 13 17 20 20 20 18 15 19 21 23 21
4 5 7 4 5 4 3 2 2 2 2 3 2 1 2 1 2 2 3 3 4 4 3 2 2 4 6 6 7 9 11 11 13 12 15 17 18 20 23 23 22 24 24 24
5 5 5 4 2 2 2 3 1 2 3 2 1 3 3 4 3 4 4 4 4 3 1 2 3 7 8 9 9 9 10 10 11 15 14 18 21 22 24 25 26 27 27 28
4 6 4 3 3 4 4 3 2 3 4 1 2 3 4 5 3 4 5 3 3 2 2 3 6 10 10 10 9 9 12 14 16 19 21 21 21 20 22 25 27 28 27 26
4 3 4 2 1 2 3 3 4 3 2 3 3 5 3 2 3 4 4 3 4 5 5 5 8 9 8 8 10 13 15 17 19 20 20 19 19 20 22 20 22 25 26 27

GFSNW_925_spd_066.txt.gz
Wind_Speed
29 27 26 25 26 23 19 6 6 21 35 5 5 8 6 4 7 3 6 2 5 3 4 3 3 4 5 10 5 4 1 2 3 13 12 5 2 5 7 4 6 4 3 9
30 29 28 27 25 22 11 4 3 25 21 10 9 5 5 6 4 4 3 3 4 4 2 4 2 5 4 12 7 3 5 4 3 4 1 4 0 5 7 3 2 9 8 4
33 31 30 29 28 28 22 2 5 4 6 2 17 11 10 11 5 6 2 3 2 2 4 2 3 6 3 7 4 6 3 3 1 1 1 5 7 13 11 10 8 4 16 8
36 35 33 33 32 31 23 4 4 4 6 10 11 17 10 16 9 12 3 4 5 2 3 5 3 4 4 7 6 2 3 5 4 6 8 4 7 10 17 16 13 11 2 10
40 39 38 37 33 28 26 3 3 4 1 13 16 16 14 15 16 7 5 6 3 6 12 11 7 3 2 3 7 2 2 1 3 5 12 7 7 8 8 12 11 12 9 14
42 41 38 37 36 31 12 12 8 2 5 10 13 16 14 18 14 14 13 9 9 7 12 8 10 11 10 8 6 5 4 2 2 3 2 4 6 7 3 7 6 11 16 9
43 40 39 38 38 39 28 7 6 4 6 12 13 16 21 17 19 12 12 16 10 4 3 2 3 5 9 11 12 9 6 2 1 2 2 3 5 4 6 7 9 14 18 15
44 41 41 40 41 41 37 19 11 5 8 5 14 15 19 19 18 17 15 9 13 3 5 4 5 3 3 6 11 11 11 4 1 2 2 7 6 6 5 5 19 10 11 14
37 40 41 42 42 43 42 32 23 4 4 12 6 10 16 11 14 14 18 10 1 4 3 3 3 3 4 3 2 7 5 3 4 2 2 5 4 2 4 3 9 7 8 12
28 33 35 34 38 43 41 18 32 7 2 5 15 8 9 7 8 5 7 14 5 4 2 3 4 4 3 3 4 3 4 2 11 5 4 8 6 5 2 2 6 11 6 5
27 25 24 25 31 45 40 28 34 20 2 2 10 11 6 7 11 7 6 4 3 2 6 3 3 3 5 5 5 4 5 6 4 3 3 8 6 3 1 6 5 7 5 6
29 28 28 29 28 26 35 3 33 31 3 1 7 5 13 11 17 6 11 8 6 6 4 3 3 3 1 5 3 4 4 6 5 8 7 5 5 7 6 7 7 7 4 5
29 32 33 30 31 31 28 10 25 19 3 1 2 5 19 16 10 8 4 3 5 5 5 4 4 4 4 4 5 4 3 3 4 2 7 12 9 7 7 7 14 11 8 7
30 31 35 34 31 33 33 18 24 11 4 2 3 11 9 27 16 16 14 6 2 2 2 3 3 3 4 3 3 4 4 5 6 10 11 8 11 4 8 15 13 13 12 9
23 25 29 32 33 31 34 21 25 15 3 3 3 3 17 24 25 15 15 11 7 1 2 2 3 2 2 2 2 3 2 3 3 9 4 4 8 9 16 12 12 13 7 4
27 27 27 29 32 37 23 2 17 28 11 3 1 3 4 20 24 15 8 8 7 4 4 2 2 4 4 2 2 5 5 5 6 5 11 11 14 5 10 9 10 12 13 10
33 30 31 30 32 26 4 4 9 32 16 2 2 2 3 12 6 3 2 2 2 3 3 4 2 2 4 2 3 5 6 7 10 6 11 5 5 5 8 9 9 12 12 13
29 33 31 30 32 13 5 5 29 33 7 1 1 2 3 8 4 3 3 3 3 1 2 2 3 2 2 1 5 7 9 12 8 8 11 9 6 6 11 9 8 16 13 12
36 38 38 28 6 2 6 22 34 12 4 3 1 2 2 3 2 2 2 2 2 2 3 3 4 2 2 3 6 8 9 8 12 13 13 6 5 8 12 8 10 13 11 10
42 28 5 3 4 36 35 7 2 2 1 0 1 2 2 3 2 2 3 2 3 3 3 4 3 2 5 6 6 7 9 10 9 9 5 8 7 8 10 12 11 10 11 11
6 3 3 19 18 7 2 3 3 2 2 2 2 2 3 1 3 3 2 3 3 3 2 2 2 2 3 6 8 8 8 8 9 7 7 8 7 7 8 10 11 11 14 13
11 16 9 5 5 3 4 3 2 1 2 2 1 2 2 1 1 3 2 1 2 3 2 3 2 2 5 6 8 9 9 9 11 12 10 11 11 12 10 11 11 16 18 18
7 4 4 4 4 9 4 2 2 2 4 4 3 2 2 2 3 2 1 3 3 2 3 3 2 4 6 7 7 9 9 13 11 13 16 20 19 19 18 14 19 20 21 19
4 5 7 4 5 4 2 2 1 2 2 4 2 2 3 2 3 3 3 3 3 3 3 2 2 4 6 6 7 9 9 10 11 11 15 16 18 19 22 23 21 23 22 22
5 5 5 4 2 2 2 3 1 3 3 2 1 3 3 4 3 3 3 4 4 3 1 1 3 6 6 7 8 8 8 8 9 12 13 16 18 20 21 23 23 23 22 23
4 6 4 3 2 5 4 4 2 3 4 1 3 3 3 4 3 4 5 3 3 1 2 3 4 7 7 8 9 9 12 12 13 16 18 19 19 19 21 24 25 25 24 23
4 3 3 1 1 2 3 3 4 3 2 3 3 5 4 3 3 3 4 2 2 3 4 5 7 7 7 8 10 13 14 15 16 17 18 18 18 19 20 18 20 23 23 24

GFSNW_925_spd_069.txt.gz
Wind_Speed
22 20 20 19 18 16 12 4 5 10 31 7 3 5 7 5 6 1 4 2 4 2 4 5 4 4 3 14 8 4 4 2 3 5 7 4 2 3 7 6 8 3 3 10
22 21 22 21 20 16 6 3 4 13 23 9 10 3 5 5 4 6 2 2 1 1 1 3 2 4 3 10 11 5 6 2 1 0 1 5 6 5 7 6 3 13 7 4
24 24 23 22 21 18 13 2 3 5 7 4 16 10 9 8 5 9 1 2 1 0 0 1 3 3 4 8 6 9 2 3 2 2 2 1 2 4 3 2 3 6 12 13
27 26 25 25 23 20 12 4 4 3 5 11 11 14 11 13 9 8 5 4 6 4 1 3 4 2 4 4 7 3 2 4 6 7 9 8 7 10 9 9 9 8 8 13
30 29 29 29 27 25 20 5 4 4 2 4 17 17 11 17 14 10 7 10 7 11 10 10 9 4 3 4 5 6 8 1 1 2 9 11 12 11 13 9 3 2 6 10
37 35 34 33 32 29 13 15 11 4 11 9 8 7 17 17 13 11 10 9 10 10 9 8 12 10 9 8 7 4 4 1 3 3 3 4 7 12 16 8 7 6 5 6
38 38 38 39 38 38 29 10 7 7 10 7 12 9 15 17 20 14 12 14 10 1 1 4 3 6 11 11 12 10 3 2 1 1 2 6 3 6 6 10 11 11 9 5
39 39 40 42 41 42 37 23 8 5 8 11 11 14 17 15 13 16 15 14 6 2 6 2 4 2 2 7 13 13 12 5 3 3 5 8 11 6 2 5 6 6 7 8
35 35 38 47 44 43 39 32 27 6 4 11 13 7 13 11 11 8 15 8 9 5 2 3 4 4 2 1 1 6 12 10 6 3 2 4 4 2 1 2 6 4 2 5
30 30 27 36 41 43 40 18 38 10 4 4 12 9 10 8 10 5 5 7 5 8 4 4 5 4 1 2 3 4 6 6 11 6 5 7 9 4 1 1 4 4 3 6
28 29 25 34 37 41 41 31 32 27 2 5 8 11 10 5 9 6 6 5 4 4 6 4 4 3 4 4 3 6 8 7 4 4 5 9 4 2 2 6 8 6 10 11
29 27 27 25 32 38 43 15 33 37 6 1 12 15 18 29 23 10 10 6 5 6 4 4 3 3 2 6 4 2 4 6 5 8 6 2 1 3 6 9 12 14 14 17
28 29 27 26 24 28 42 19 32 26 3 2 4 5 11 20 23 16 5 5 5 4 3 3 3 4 5 5 5 5 4 4 4 4 3 12 15 5 8 11 12 15 16 17
27 29 29 28 28 27 19 20 32 15 3 3 3 10 8 17 15 18 13 0 3 4 2 1 2 3 4 4 1 5 4 3 5 10 11 11 11 9 15 16 13 14 14 14
28 28 27 33 29 29 25 18 18 18 4 2 2 5 15 19 23 15 11 7 5 3 3 3 3 1 3 1 1 3 3 4 4 7 2 4 7 12 12 12 13 12 11 14
21 26 28 35 31 30 19 3 23 16 10 3 3 1 3 17 21 20 7 4 1 2 2 3 3 3 2 3 3 3 3 3 4 3 8 8 9 6 8 7 10 10 10 10
23 23 23 35 35 33 5 4 15 27 10 2 1 2 3 17 9 3 5 5 3 3 3 2 1 1 3 3 5 3 4 8 8 7 7 4 4 3 6 6 6 6 9 10
27 26 27 29 34 21 3 4 25 32 4 1 2 2 3 9 4 4 4 4 3 4 3 4 3 3 2 2 6 6 7 10 4 10 9 9 11 4 7 7 5 6 10 9
33 33 41 29 7 3 4 31 30 13 3 4 2 3 3 5 3 3 2 1 2 1 4 3 3 2 2 4 5 6 7 7 11 12 10 7 7 8 9 9 8 6 11 6
42 22 4 3 7 39 25 7 3 2 1 1 1 1 1 3 2 3 3 2 3 3 3 3 3 2 7 8 7 7 8 9 10 10 8 10 7 7 8 8 8 8 8 7
6 3 3 27 22 5 2 3 3 3 2 2 1 2 4 1 3 2 0 2 3 4 2 3 2 2 3 6 8 8 8 8 8 7 6 7 8 8 8 9 10 10 12 12
11 15 9 6 5 3 3 2 2 2 2 2 1 2 3 2 3 2 3 2 3 2 2 3 2 2 6 7 8 9 8 9 10 11 10 12 12 14 12 11 12 16 19 19
9 6 4 3 4 7 4 2 2 2 4 4 3 3 2 1 3 3 1 2 3 2 3 2 2 4 5 6 6 8 10 11 12 12 16 16 18 20 19 16 17 21 22 20
4 4 6 4 4 3 3 2 1 2 2 4 2 3 3 2 3 2 4 2 3 3 2 2 2 5 5 6 6 8 9 10 12 12 14 15 17 18 20 20 19 21 22 21
4 4 5 4 2 2 2 2 1 3 4 2 2 3 3 4 4 3 2 3 4 3 2 2 3 6 6 7 8 9 10 10 11 14 14 16 18 20 21 22 22 22 22 22
4 7 4 3 2 4 3 4 3 4 4 1 2 3 4 5 3 4 4 2 2 2 2 3 5 8 8 8 9 9 13 14 15 16 17 18 18 19 20 22 22 22 22 22
5 3 2 1 2 1 3 3 4 4 2 3 3 5 4 3 3 3 3 2 2 4 5 5 7 8 7 7 10 13 14 16 16 17 17 17 17 17 19 19 18 19 20 22

GFSNW_925_spd_075.txt.gz
Wind_Speed
22 18 18 16 14 10 7 11 4 6 18 8 3 10 16 18 11 13 13 8 10 11 7 6 6 2 4 7 12 7 10 5 8 15 18 23 18 19 18 9 13 11 12 9
20 19 17 16 17 14 11 4 8 7 14 7 10 12 19 17 16 18 15 15 13 12 10 5 6 5 6 5 7 8 8 8 8 11 8 11 14 18 21 18 15 13 3 2
22 19 19 17 20 18 14 3 4 8 7 6 9 15 18 17 15 22 19 16 13 15 16 13 7 7 1 6 6 8 6 9 12 8 6 3 12 8 13 10 9 11 13 14
25 24 21 20 22 20 16 5 5 6 7 13 17 15 7 20 18 16 12 16 19 17 16 16 16 15 12 8 2 6 3 6 11 7 8 3 6 7 10 13 14 12 14 13
30 28 26 24 25 23 20 4 5 7 11 8 9 18 16 19 19 20 18 18 18 20 20 18 15 9 2 9 4 4 3 9 7 13 6 7 10 12 11 12 11 12 12 15
32 32 31 29 28 27 15 9 18 6 8 15 13 11 15 18 16 14 17 17 17 14 13 11 11 11 9 11 8 8 6 7 9 11 9 7 10 15 16 14 15 13 13 6
32 34 37 36 35 34 27 16 15 6 9 12 14 17 15 16 10 17 14 19 15 4 5 8 9 11 13 14 15 12 9 10 7 7 1 10 6 1 4 10 13 13 11 5
25 30 37 41 38 39 31 28 12 7 9 15 18 20 16 10 10 13 14 24 6 2 3 5 9 10 11 15 17 16 15 12 5 5 9 13 15 11 10 9 8 3 0 3
25 26 29 46 40 39 34 30 27 7 5 15 20 18 20 14 8 9 17 5 7 2 1 4 6 7 9 9 8 19 16 15 9 6 11 10 6 4 4 3 7 8 5 5
23 22 25 38 39 39 35 24 34 15 4 15 9 14 13 14 9 5 9 5 4 4 4 5 7 8 3 4 8 12 11 10 14 12 9 7 3 5 2 11 5 3 6 7
23 24 27 36 40 39 35 32 29 26 5 16 19 19 14 10 10 8 1 4 2 2 5 5 5 5 6 6 3 10 11 9 7 9 6 15 8 5 7 8 4 8 8 10
26 26 30 33 36 40 44 16 37 37 9 7 19 30 26 24 7 6 7 5 3 7 6 7 4 4 3 8 8 11 7 8 8 10 8 4 2 7 7 8 8 10 11 12
29 27 29 32 34 35 39 26 26 26 7 7 15 17 15 26 27 11 3 2 3 6 7 2 3 5 5 5 9 9 10 5 4 1 5 1 10 2 12 10 10 10 12 12
25 30 31 29 31 33 35 21 33 29 4 4 10 22 31 17 22 21 19 12 9 7 4 3 4 4 4 6 7 9 8 6 12 10 11 10 1 12 12 11 12 13 13 12
25 28 27 29 31 28 30 26 33 31 10 5 11 14 18 27 29 22 22 19 10 4 2 3 4 6 5 6 6 8 8 8 6 4 10 7 9 12 13 11 13 13 14 13
24 24 26 32 27 31 19 3 21 34 28 3 2 9 10 14 23 22 18 12 7 3 2 2 3 4 1 3 7 12 3 10 10 5 9 8 9 11 12 10 12 12 11 11
24 24 25 29 30 28 4 3 11 36 24 4 3 3 3 18 14 8 6 7 2 3 0 3 3 6 5 3 5 5 8 9 8 10 11 0 9 7 10 10 10 10 11 12
24 27 31 29 31 15 2 3 24 41 9 4 3 2 5 10 3 3 4 2 3 4 2 2 4 4 2 2 8 7 9 8 6 10 8 6 6 6 8 8 8 6 8 8
30 36 35 26 5 3 4 26 37 20 4 4 3 4 4 7 4 4 3 3 1 4 3 4 4 4 0 4 5 7 8 7 9 10 6 3 3 4 7 8 8 7 7 7
48 35 5 3 6 21 19 7 2 3 2 3 3 3 3 7 6 5 4 3 2 3 5 2 2 3 7 5 5 5 6 7 8 8 6 8 7 6 7 8 7 7 7 8
9 2 3 23 29 6 1 3 3 3 4 4 2 2 6 2 6 4 3 2 3 3 3 2 3 3 3 5 6 7 7 6 6 4 4 5 5 5 5 7 7 10 11 12
10 17 17 5 1 2 4 3 3 2 3 3 4 3 3 2 2 3 3 2 2 1 3 2 3 4 6 6 6 7 6 7 7 8 7 8 9 10 10 10 11 13 14 15
13 5 4 1 3 2 1 5 3 4 2 2 2 3 2 1 1 2 1 3 2 1 1 2 4 6 6 5 5 6 9 9 10 10 11 13 15 15 15 14 14 15 16 16
4 3 5 4 3 4 3 4 4 3 2 1 2 3 2 2 2 2 2 2 3 3 4 3 5 7 6 6 6 7 8 9 10 11 14 15 16 16 16 15 14 16 18 17
5 5 4 4 2 4 3 1 1 3 3 2 3 4 3 3 3 2 2 2 3 5 4 3 5 6 6 7 7 8 8 8 9 12 13 14 15 16 18 17 17 17 17 17
4 7 3 1 4 6 5 5 5 5 4 3 1 3 3 3 2 2 3 1 3 3 4 5 5 6 7 7 8 9 11 12 13 14 14 15 15 17 17 17 18 18 17 17
4 4 4 4 5 6 4 5 5 5 3 3 2 3 3 2 3 3 4 3 5 5 5 6 7 7 7 7 10 11 12 13 13 14 14 14 14 13 15 15 14 15 15 15

GFSNW_925_spd_081.txt.gz
Wind_Speed
21 20 18 17 14 11 5 2 3 6 18 5 2 6 4 8 16 17 10 8 6 9 12 6 6 3 5 6 3 4 4 4 4 9 10 11 13 13 13 2 2 4 2 4
19 18 18 16 12 9 3 2 4 8 2 5 5 3 12 16 18 16 7 7 8 7 9 5 5 7 9 6 4 3 3 3 4 5 3 5 5 12 16 7 7 3 2 1
19 19 17 17 12 8 4 3 3 2 4 2 3 8 11 14 11 14 16 13 13 11 8 8 5 8 1 6 4 8 4 2 2 6 4 1 4 9 12 12 3 4 6 10
19 20 21 17 13 10 7 2 4 3 3 2 5 7 6 6 12 14 13 7 12 12 8 7 6 8 7 2 3 6 6 5 4 9 12 8 7 8 6 11 12 6 2 10
23 24 22 19 17 12 8 2 2 3 5 8 8 9 4 13 14 11 10 8 8 9 7 7 8 5 6 3 6 7 6 5 5 8 10 13 7 9 8 3 3 8 6 9
25 24 21 21 22 19 6 6 11 1 5 6 3 4 7 9 11 9 9 10 10 12 6 6 8 1 3 1 1 4 4 4 3 4 8 6 5 9 10 12 16 14 9 8
24 23 22 23 25 28 17 10 4 2 5 4 7 14 11 11 12 9 7 4 4 4 4 5 5 5 6 7 7 6 4 6 3 3 7 5 6 6 10 12 8 9 3 6
24 25 21 18 20 30 26 19 4 2 3 6 12 14 11 7 7 6 6 6 4 4 5 1 5 4 4 6 13 11 8 4 2 2 3 9 14 2 3 1 3 7 5 11
22 19 18 17 15 29 31 25 22 4 2 5 12 12 8 5 5 6 7 4 4 4 1 3 3 4 5 4 5 18 14 6 5 2 4 5 10 5 9 2 3 11 15 14
22 21 20 18 16 24 34 16 28 10 3 6 7 3 5 6 8 4 3 3 3 1 2 1 3 3 4 3 4 2 10 5 12 7 4 7 4 4 6 4 2 10 14 12
24 23 21 21 20 21 35 29 21 23 3 7 7 9 8 6 3 2 5 3 1 1 1 2 4 2 4 3 2 8 7 7 5 4 4 7 7 3 3 3 8 12 14 13
28 27 23 21 21 23 32 13 31 22 5 3 10 13 18 16 15 5 1 3 3 1 2 1 3 2 3 3 3 8 3 4 4 7 6 3 10 12 10 9 11 13 13 12
25 21 21 20 23 23 27 15 28 18 1 4 6 11 27 21 20 20 4 2 6 1 1 2 3 4 3 3 4 2 4 5 2 2 11 13 15 15 16 12 15 14 11 11
21 16 16 17 20 20 29 19 22 19 2 2 5 14 12 28 28 19 20 8 6 4 2 1 2 2 2 2 5 3 4 3 3 3 10 14 11 12 10 13 15 11 12 13
16 16 17 18 23 22 28 21 24 27 9 3 3 13 23 24 24 21 19 11 4 2 1 1 2 2 3 3 5 3 6 5 3 4 10 9 6 10 11 13 11 13 12 14
17 17 19 17 26 28 20 2 19 31 21 2 3 5 5 10 22 16 7 5 3 3 1 2 2 4 3 2 2 6 13 12 14 3 6 13 13 11 11 9 12 14 14 12
22 19 16 20 28 33 5 4 6 35 25 2 3 4 4 13 11 3 3 5 3 2 2 2 3 3 2 2 2 8 12 10 12 11 9 8 10 7 11 12 16 20 19 17
24 20 18 25 29 18 9 1 5 35 9 3 3 3 2 4 2 2 2 3 2 2 2 1 3 3 2 3 6 8 12 11 14 14 10 10 12 12 11 13 11 13 11 11
28 20 24 18 8 4 9 7 24 21 5 3 3 2 2 3 1 3 2 2 2 3 3 3 3 2 3 3 6 10 11 9 9 9 12 11 10 11 10 10 11 12 10 10
30 25 6 3 10 27 22 6 5 2 1 2 3 2 1 2 2 2 3 3 2 3 4 1 3 3 7 9 9 9 9 9 10 6 11 10 9 10 11 10 9 10 10 12
8 3 2 21 29 7 2 3 3 3 3 3 3 3 2 2 2 3 2 2 3 2 3 5 2 2 3 8 10 9 8 9 10 10 10 10 9 9 10 11 14 15 16 14
10 17 17 8 3 2 4 4 3 4 5 1 4 3 1 2 2 3 2 3 2 3 3 2 2 3 6 8 9 10 9 10 10 14 12 13 15 13 13 13 14 16 16 16
11 6 3 2 2 4 5 5 2 3 2 1 2 3 2 1 2 1 2 3 1 2 2 3 3 5 5 6 6 8 11 12 12 12 14 15 16 17 16 15 16 17 17 17
3 3 5 4 3 3 2 3 3 2 1 1 4 3 2 1 2 1 1 1 1 2 3 3 2 3 5 5 6 6 6 6 7 9 13 13 14 15 17 17 16 16 15 16
4 4 4 3 1 0 1 1 2 2 1 1 3 3 3 2 3 2 2 2 3 3 2 2 2 3 4 3 4 4 4 3 6 11 11 13 14 14 15 17 18 18 18 17
3 6 3 1 3 4 4 4 2 3 3 2 1 3 3 3 2 3 4 2 2 1 3 3 3 4 4 4 4 6 10 10 10 10 11 12 12 12 13 16 16 16 16 17
4 3 3 3 4 5 3 4 3 2 1 2 3 4 3 1 3 3 3 2 3 4 4 4 5 4 3 4 8 9 10 9 10 11 11 12 14 13 10 10 12 13 14 14

GFSNW_925_spd_084.txt.gz
Wind_Speed
18 19 17 17 15 12 6 3 3 3 13 3 2 1 2 7 11 7 5 6 3 4 7 5 5 6 3 5 2 2 1 1 3 8 7 8 11 6 6 3 2 3 1 3
18 17 18 16 13 7 2 2 3 7 8 2 4 4 11 9 11 12 5 6 8 9 4 5 4 4 2 6 3 4 1 1 3 6 4 7 5 4 4 9 3 6 3 1
17 16 16 14 10 5 4 2 3 3 2 3 3 4 7 6 7 10 8 7 7 4 6 4 5 5 3 4 2 4 3 3 4 3 2 3 5 6 10 8 3 2 5 5
18 17 16 18 12 6 6 1 3 4 2 2 4 7 3 3 3 5 5 3 1 6 3 7 4 4 4 6 7 3 3 2 3 5 7 8 11 12 8 8 10 5 6 7
19 18 19 19 14 9 8 2 2 3 3 6 4 3 2 4 6 7 7 5 9 5 3 2 4 7 3 2 4 3 4 2 5 5 6 10 10 16 9 10 5 4 6 5
19 20 21 20 16 14 5 8 4 1 3 4 4 3 10 13 11 5 6 8 2 5 2 4 6 5 7 4 1 1 2 3 5 4 4 7 5 12 13 10 8 10 7 6
20 22 21 19 17 19 14 8 5 2 3 2 3 11 14 13 10 4 8 5 3 4 4 5 3 4 6 6 7 5 4 4 3 4 5 4 5 18 12 14 8 16 7 7
21 22 20 19 16 16 17 16 4 2 2 3 5 8 8 8 10 6 5 9 1 3 4 3 4 4 3 6 9 9 8 4 2 3 3 7 18 6 5 3 1 12 11 16
23 20 19 16 13 14 27 18 23 1 1 4 5 2 3 2 4 6 3 5 2 4 2 2 2 3 3 3 4 11 8 5 4 2 3 3 7 9 7 9 2 12 9 15
23 20 19 16 14 13 25 11 27 6 4 4 1 1 2 1 3 3 3 7 7 3 2 2 3 3 2 3 3 1 2 1 11 4 4 6 9 13 11 4 3 5 12 11
23 21 21 18 17 15 24 16 25 20 3 6 4 2 2 2 2 2 4 4 2 2 1 2 3 2 3 2 4 3 4 5 4 4 4 9 11 9 4 4 9 10 11 12
23 23 22 21 20 20 21 8 25 32 3 3 2 12 19 18 11 2 1 1 1 3 2 1 1 2 3 2 3 2 4 5 3 5 5 6 10 11 9 7 9 8 10 9
25 24 24 23 21 21 22 13 26 13 2 4 8 12 24 24 22 17 4 3 4 2 4 2 1 3 2 2 2 4 4 5 2 2 7 12 13 15 15 11 11 11 10 10
25 23 20 18 17 20 23 15 22 19 2 2 5 7 9 19 25 22 22 8 4 3 3 1 1 3 2 2 3 2 4 0 4 3 8 10 13 13 12 13 12 15 13 14
20 19 17 13 13 14 23 20 23 27 4 3 3 12 22 21 15 24 18 9 4 3 2 1 3 3 2 2 2 4 6 5 3 1 7 7 7 8 10 9 12 13 11 10
14 14 13 13 15 22 14 2 13 27 8 2 3 4 4 8 18 14 11 9 3 2 2 2 2 3 1 3 2 4 9 10 12 4 8 9 7 12 11 11 11 12 12 10
17 16 13 16 20 28 5 4 5 30 16 2 3 3 4 4 6 3 2 5 2 2 2 2 2 3 3 1 3 7 8 10 14 6 5 9 10 7 10 13 13 17 14 14
18 19 16 16 25 18 7 1 7 31 7 2 2 4 2 1 3 2 1 3 2 1 2 2 2 2 2 3 6 9 10 7 13 12 12 11 9 11 10 10 9 9 8 9
23 20 18 18 6 4 10 4 29 17 4 4 2 2 2 1 2 2 2 2 2 3 3 3 2 2 3 4 7 8 9 6 6 6 9 8 10 9 8 7 7 8 8 9
29 26 5 3 11 31 26 6 2 2 2 2 3 2 2 1 2 2 3 2 2 3 4 2 3 2 7 7 7 5 6 7 7 3 7 4 7 7 7 7 6 7 7 9
7 3 3 14 35 6 1 3 4 3 3 3 4 4 3 2 3 3 2 3 3 2 3 3 2 2 3 6 8 8 8 9 9 9 9 9 7 7 7 8 9 10 11 10
12 15 18 8 4 2 4 4 4 4 5 3 3 2 2 2 0 2 2 2 2 3 2 3 2 3 6 6 7 7 7 9 9 10 8 10 10 10 11 11 11 11 12 14
18 5 3 3 1 3 5 6 3 4 4 3 3 2 2 2 2 2 2 4 3 1 3 2 2 5 5 5 5 6 8 9 10 10 11 11 13 13 12 11 13 15 15 15
3 3 4 2 2 0 2 1 2 1 1 5 4 3 2 1 2 1 2 2 1 2 2 2 1 3 3 4 5 7 4 6 7 9 13 13 13 14 15 15 14 15 14 14
3 3 3 1 3 2 1 0 2 2 1 1 2 3 3 2 3 2 2 3 2 2 3 2 1 2 4 3 4 5 5 3 6 12 11 13 14 13 14 15 15 15 14 13
3 5 3 2 3 4 3 3 2 2 1 1 3 3 3 2 2 4 1 1 3 2 2 3 3 3 3 3 4 7 11 12 11 11 11 12 12 11 12 14 14 13 13 13
4 3 2 2 3 2 2 2 3 3 2 2 2 4 0 1 3 2 2 3 3 4 4 2 3 4 4 5 10 11 11 12 12 12 12 12 13 13 10 9 11 11 12 13

GFSNW_925_spd_087.txt.gz
Wind_Speed
12 14 14 14 14 12 6 3 3 5 6 3 2 3 4 7 8 9 7 5 7 6 6 7 6 6 3 7 5 4 3 3 1 6 3 4 5 4 5 3 2 3 5 3
12 14 13 13 12 8 2 1 4 3 5 2 3 4 10 7 8 11 6 7 6 7 4 3 8 8 6 6 3 3 1 2 2 4 2 6 5 2 2 7 2 7 3 4
12 12 13 12 10 6 2 2 3 2 2 2 3 5 10 6 5 10 10 10 8 5 4 5 4 7 8 6 4 9 4 2 2 2 5 3 3 5 4 5 3 2 6 5
12 13 13 12 11 5 5 0 3 2 3 2 6 8 3 3 3 3 4 3 5 4 4 3 4 7 6 5 8 5 4 1 1 4 6 6 9 11 11 8 9 6 7 10
14 14 13 12 11 6 8 3 2 2 3 8 7 10 10 11 5 3 5 7 4 4 3 2 3 3 4 4 6 4 3 2 4 3 7 8 9 11 12 8 9 9 11 13
15 15 14 14 11 12 5 7 5 1 3 5 3 3 11 10 12 6 6 8 3 5 2 3 5 4 4 3 2 3 2 2 3 3 7 9 5 4 7 4 5 3 4 5
15 15 14 14 13 16 14 6 5 2 4 2 4 10 10 11 11 5 6 6 3 2 1 4 4 4 6 6 7 6 3 4 3 3 4 3 6 12 10 5 7 5 13 8
16 15 15 14 13 12 16 12 5 3 2 4 7 7 4 6 6 4 3 5 4 5 4 3 3 3 3 4 6 7 6 4 1 2 3 6 10 4 5 8 11 4 9 5
16 16 16 14 12 9 24 17 18 2 2 4 7 4 3 1 3 6 4 5 7 5 3 3 2 1 1 3 5 4 5 3 3 1 3 5 5 4 10 9 6 9 6 21
17 17 16 13 13 11 19 9 23 4 2 4 3 2 1 1 2 2 3 6 7 4 2 0 2 2 2 2 1 1 2 1 7 5 5 6 4 8 7 1 4 9 10 5
19 18 17 15 14 13 14 8 25 15 3 4 3 4 4 1 2 1 3 3 3 2 2 0 2 2 2 2 3 2 4 4 3 2 5 8 7 5 3 2 10 10 12 12
21 19 18 17 17 17 14 8 23 27 2 4 4 20 18 13 5 3 1 3 2 2 3 1 2 2 3 2 2 4 2 3 2 4 3 8 11 12 9 10 11 10 12 11
22 20 18 19 18 18 18 14 21 15 1 4 3 6 23 17 16 15 3 2 2 3 3 2 2 3 2 2 2 2 3 2 3 4 8 10 9 13 14 15 15 15 13 12
23 23 22 20 20 21 20 17 23 18 2 3 5 3 8 25 25 24 20 5 3 3 2 1 2 2 2 2 3 1 3 8 6 3 4 4 10 11 10 13 13 14 14 13
20 22 22 18 19 15 18 23 27 26 5 3 3 9 17 16 14 24 20 12 4 2 2 2 2 2 2 2 1 3 5 4 4 3 6 4 5 8 11 13 12 13 10 12
10 14 15 14 10 18 14 2 16 27 11 1 2 4 3 2 18 15 13 11 3 2 2 2 3 3 1 1 2 3 6 7 6 3 6 8 6 9 12 12 10 11 11 11
11 11 11 11 22 20 3 3 6 30 17 2 2 3 3 2 5 2 2 6 2 3 2 2 2 2 2 1 2 5 6 8 10 8 1 6 11 5 8 9 10 13 15 13
15 14 12 16 24 16 3 2 17 27 6 2 2 3 3 5 2 3 2 3 2 1 2 2 2 1 2 2 6 6 7 5 9 9 8 7 6 7 8 8 7 8 9 8
18 15 13 21 5 5 3 10 26 15 2 3 2 2 3 2 2 2 1 3 1 1 2 2 2 1 1 3 5 5 6 5 6 3 5 6 7 7 7 8 8 7 7 7
20 13 4 2 6 29 24 7 2 2 2 2 3 2 2 2 2 2 2 0 3 3 4 3 2 2 5 6 5 4 4 6 7 1 2 3 4 5 7 8 6 6 6 10
13 3 3 9 32 7 1 3 3 3 3 3 4 6 3 3 2 2 2 3 3 3 3 3 2 2 3 5 5 4 4 5 5 5 6 8 6 5 5 6 8 8 9 9
16 16 22 6 3 2 4 4 4 4 5 3 4 3 2 2 1 2 3 3 3 3 2 3 2 2 6 5 5 5 6 7 7 6 5 7 9 8 9 8 8 10 11 12
19 6 4 3 2 3 6 7 3 4 4 4 3 3 2 2 1 2 2 3 3 2 3 2 2 5 5 4 4 5 6 6 7 8 8 9 10 10 10 10 12 14 15 14
3 3 4 2 1 2 4 3 3 1 0 6 5 3 2 1 2 0 3 0 3 2 0 4 2 5 6 4 4 5 3 6 7 8 12 12 13 14 14 13 12 14 13 11
3 3 3 1 3 1 2 1 3 1 0 2 3 2 2 2 3 2 2 3 1 3 3 2 2 4 5 4 4 5 5 4 6 11 11 12 12 13 13 13 14 14 14 13
3 5 3 2 3 2 3 2 2 2 1 2 3 3 3 2 3 3 2 1 3 2 2 2 3 4 3 3 4 6 9 11 11 10 10 10 11 12 12 11 11 10 10 9
4 3 2 2 3 2 2 2 2 3 2 2 2 4 3 2 3 1 0 3 3 3 2 1 3 4 5 5 9 11 11 10 10 10 9 11 11 11 10 9 8 9 8 8